Wetterdaten: Samstag, 04.06.2022
Datum Zeit Temp. Aussen Temp. o. S. Temp +5cm Feuchte Auss Luftdruck Regen Sonnenschein Regendauer Solar Windben Empfang
04.06.2022 00:00 19,6 C 18,3 C 15,0 C 65 % 1017,3 hPa 0,0 l/m 0 min 0 min 0 W/m 6,4 km/h (2 Bft) 100,00 %
04.06.2022 00:02 19,6 C 18,3 C 15,0 C 65 % 1017,3 hPa 0,0 l/m 0 min 0 min 0 W/m 12,9 km/h (3 Bft) 97,78 %
04.06.2022 00:04 19,6 C 18,3 C 15,0 C 66 % 1017,3 hPa 0,0 l/m 0 min 0 min 0 W/m 9,7 km/h (2 Bft) 100,00 %
04.06.2022 00:08 19,5 C 18,3 C 14,4 C 66 % 1017,4 hPa 0,0 l/m 0 min 0 min 0 W/m 12,9 km/h (3 Bft) 100,00 %
04.06.2022 00:10 19,4 C 18,3 C 14,4 C 66 % 1017,4 hPa 0,0 l/m 0 min 0 min 0 W/m 12,9 km/h (3 Bft) 100,00 %
04.06.2022 00:12 19,4 C 18,3 C 14,4 C 66 % 1017,4 hPa 0,0 l/m 0 min 0 min 0 W/m 16,1 km/h (3 Bft) 100,00 %
04.06.2022 00:14 19,4 C 18,3 C 14,4 C 66 % 1017,4 hPa 0,0 l/m 0 min 0 min 0 W/m 3,2 km/h (1 Bft) 100,00 %
04.06.2022 00:16 19,3 C 18,3 C 14,4 C 66 % 1017,6 hPa 0,0 l/m 0 min 0 min 0 W/m 9,7 km/h (2 Bft) 97,87 %
04.06.2022 00:18 19,3 C 18,3 C 14,4 C 66 % 1017,6 hPa 0,0 l/m 0 min 0 min 0 W/m 9,7 km/h (2 Bft) 100,00 %
04.06.2022 00:20 19,3 C 18,3 C 14,4 C 66 % 1017,5 hPa 0,0 l/m 0 min 0 min 0 W/m 6,4 km/h (2 Bft) 100,00 %
04.06.2022 00:22 19,3 C 18,3 C 14,4 C 66 % 1017,5 hPa 0,0 l/m 0 min 0 min 0 W/m 9,7 km/h (2 Bft) 100,00 %
04.06.2022 00:24 19,3 C 18,3 C 14,4 C 65 % 1017,6 hPa 0,0 l/m 0 min 0 min 0 W/m 16,1 km/h (3 Bft) 97,87 %
04.06.2022 00:26 19,3 C 18,3 C 14,4 C 65 % 1017,6 hPa 0,0 l/m 0 min 0 min 0 W/m 12,9 km/h (3 Bft) 97,87 %
04.06.2022 00:28 19,2 C 18,3 C 14,4 C 65 % 1017,6 hPa 0,0 l/m 0 min 0 min 0 W/m 9,7 km/h (2 Bft) 97,87 %
04.06.2022 00:30 19,2 C 18,3 C 14,4 C 65 % 1017,6 hPa 0,0 l/m 0 min 0 min 0 W/m 9,7 km/h (2 Bft) 95,65 %
04.06.2022 00:32 19,2 C 18,3 C 14,4 C 66 % 1017,6 hPa 0,0 l/m 0 min 0 min 0 W/m 9,7 km/h (2 Bft) 97,87 %
04.06.2022 00:34 19,2 C 18,3 C 14,4 C 66 % 1017,6 hPa 0,0 l/m 0 min 0 min 0 W/m 6,4 km/h (2 Bft) 97,87 %
04.06.2022 00:36 19,1 C 18,3 C 14,4 C 65 % 1017,6 hPa 0,0 l/m 0 min 0 min 0 W/m 22,5 km/h (4 Bft) 95,74 %
04.06.2022 00:38 19,1 C 18,3 C 14,4 C 65 % 1017,5 hPa 0,0 l/m 0 min 0 min 0 W/m 6,4 km/h (2 Bft) 97,87 %
04.06.2022 00:40 19,1 C 18,3 C 14,4 C 66 % 1017,5 hPa 0,0 l/m 0 min 0 min 0 W/m 12,9 km/h (3 Bft) 97,22 %
04.06.2022 00:42 19,1 C 18,3 C 14,4 C 66 % 1017,5 hPa 0,0 l/m 0 min 0 min 0 W/m 9,7 km/h (2 Bft) 95,74 %
04.06.2022 00:44 19,1 C 17,8 C 14,4 C 66 % 1017,5 hPa 0,0 l/m 0 min 0 min 0 W/m 9,7 km/h (2 Bft) 97,83 %
04.06.2022 00:46 19,0 C 17,8 C 14,4 C 66 % 1017,5 hPa 0,0 l/m 0 min 0 min 0 W/m 6,4 km/h (2 Bft) 97,87 %
04.06.2022 00:48 18,9 C 17,8 C 14,4 C 66 % 1017,5 hPa 0,0 l/m 0 min 0 min 0 W/m 6,4 km/h (2 Bft) 97,87 %
04.06.2022 00:50 18,9 C 17,8 C 14,4 C 66 % 1017,5 hPa 0,0 l/m 0 min 0 min 0 W/m 16,1 km/h (3 Bft) 97,87 %
04.06.2022 00:52 18,9 C 17,8 C 14,4 C 66 % 1017,5 hPa 0,0 l/m 0 min 0 min 0 W/m 6,4 km/h (2 Bft) 97,87 %
04.06.2022 00:54 18,8 C 17,8 C 13,9 C 66 % 1017,5 hPa 0,0 l/m 0 min 0 min 0 W/m 12,9 km/h (3 Bft) 97,87 %
04.06.2022 00:56 18,8 C 17,8 C 13,9 C 66 % 1017,5 hPa 0,0 l/m 0 min 0 min 0 W/m 6,4 km/h (2 Bft) 94,44 %
04.06.2022 00:58 18,7 C 17,2 C 13,9 C 66 % 1017,5 hPa 0,0 l/m 0 min 0 min 0 W/m 6,4 km/h (2 Bft) 94,87 %
04.06.2022 01:00 18,6 C 17,2 C 13,9 C 67 % 1017,5 hPa 0,0 l/m 0 min 0 min 0 W/m 6,4 km/h (2 Bft) 95,74 %
04.06.2022 01:02 18,6 C 17,2 C 13,9 C 67 % 1017,5 hPa 0,0 l/m 0 min 0 min 0 W/m 16,1 km/h (3 Bft) 95,74 %
04.06.2022 01:04 18,4 C 17,2 C 13,9 C 67 % 1017,5 hPa 0,0 l/m 0 min 0 min 0 W/m 12,9 km/h (3 Bft) 95,74 %
04.06.2022 01:06 18,4 C 17,2 C 13,9 C 67 % 1017,4 hPa 0,0 l/m 0 min 0 min 0 W/m 6,4 km/h (2 Bft) 95,74 %
04.06.2022 01:08 18,3 C 17,2 C 13,3 C 67 % 1017,4 hPa 0,0 l/m 0 min 0 min 0 W/m 9,7 km/h (2 Bft) 95,65 %
04.06.2022 01:10 18,3 C 17,2 C 13,3 C 68 % 1017,4 hPa 0,0 l/m 0 min 0 min 0 W/m 12,9 km/h (3 Bft) 95,74 %
04.06.2022 01:12 18,2 C 17,2 C 13,3 C 68 % 1017,4 hPa 0,0 l/m 0 min 0 min 0 W/m 9,7 km/h (2 Bft) 93,62 %
04.06.2022 01:14 18,2 C 17,2 C 13,3 C 68 % 1017,4 hPa 0,0 l/m 0 min 0 min 0 W/m 6,4 km/h (2 Bft) 97,87 %
04.06.2022 01:16 18,1 C 16,7 C 13,3 C 69 % 1017,4 hPa 0,0 l/m 0 min 0 min 0 W/m 6,4 km/h (2 Bft) 95,74 %
04.06.2022 01:18 18,1 C 16,7 C 13,3 C 69 % 1017,4 hPa 0,0 l/m 0 min 0 min 0 W/m 6,4 km/h (2 Bft) 97,83 %
04.06.2022 01:20 17,9 C 16,7 C 13,3 C 69 % 1017,4 hPa 0,0 l/m 0 min 0 min 0 W/m 12,9 km/h (3 Bft) 95,74 %
04.06.2022 01:22 17,9 C 16,7 C 13,3 C 69 % 1017,4 hPa 0,0 l/m 0 min 0 min 0 W/m 3,2 km/h (1 Bft) 97,87 %
04.06.2022 01:24 17,8 C 16,7 C 13,3 C 69 % 1017,4 hPa 0,0 l/m 0 min 0 min 0 W/m 6,4 km/h (2 Bft) 97,87 %
04.06.2022 01:26 17,8 C 16,7 C 13,3 C 69 % 1017,3 hPa 0,0 l/m 0 min 0 min 0 W/m 6,4 km/h (2 Bft) 95,74 %
04.06.2022 01:28 17,7 C 16,7 C 13,3 C 69 % 1017,3 hPa 0,0 l/m 0 min 0 min 0 W/m 12,9 km/h (3 Bft) 97,87 %
04.06.2022 01:30 17,7 C 16,7 C 12,8 C 70 % 1017,4 hPa 0,0 l/m 0 min 0 min 0 W/m 6,4 km/h (2 Bft) 93,48 %
04.06.2022 01:32 17,7 C 16,7 C 12,8 C 70 % 1017,4 hPa 0,0 l/m 0 min 0 min 0 W/m 12,9 km/h (3 Bft) 100,00 %
04.06.2022 01:34 17,6 C 16,7 C 12,8 C 70 % 1017,4 hPa 0,0 l/m 0 min 0 min 0 W/m 12,9 km/h (3 Bft) 100,00 %
04.06.2022 01:36 17,6 C 16,7 C 12,8 C 70 % 1017,4 hPa 0,0 l/m 0 min 0 min 0 W/m 12,9 km/h (3 Bft) 97,87 %
04.06.2022 01:38 17,5 C 16,7 C 12,8 C 70 % 1017,4 hPa 0,0 l/m 0 min 0 min 0 W/m 9,7 km/h (2 Bft) 100,00 %
04.06.2022 01:40 17,4 C 16,7 C 12,8 C 70 % 1017,4 hPa 0,0 l/m 0 min 0 min 0 W/m 12,9 km/h (3 Bft) 97,87 %
04.06.2022 01:42 17,4 C 16,7 C 12,8 C 70 % 1017,5 hPa 0,0 l/m 0 min 0 min 0 W/m 12,9 km/h (3 Bft) 100,00 %
04.06.2022 01:44 17,4 C 16,7 C 12,8 C 70 % 1017,5 hPa 0,0 l/m 0 min 0 min 0 W/m 9,7 km/h (2 Bft) 100,00 %
04.06.2022 01:46 17,4 C 16,7 C 12,8 C 70 % 1017,4 hPa 0,0 l/m 0 min 0 min 0 W/m 9,7 km/h (2 Bft) 100,00 %
04.06.2022 01:48 17,4 C 16,7 C 12,8 C 71 % 1017,4 hPa 0,0 l/m 0 min 0 min 0 W/m 3,2 km/h (1 Bft) 95,74 %
04.06.2022 01:50 17,3 C 16,1 C 12,8 C 71 % 1017,5 hPa 0,0 l/m 0 min 0 min 0 W/m 6,4 km/h (2 Bft) 97,87 %
04.06.2022 01:52 17,3 C 16,1 C 12,8 C 71 % 1017,5 hPa 0,0 l/m 0 min 0 min 0 W/m 6,4 km/h (2 Bft) 97,87 %
04.06.2022 01:54 17,3 C 16,1 C 12,8 C 71 % 1017,5 hPa 0,0 l/m 0 min 0 min 0 W/m 12,9 km/h (3 Bft) 97,83 %
04.06.2022 01:56 17,3 C 16,1 C 12,8 C 71 % 1017,5 hPa 0,0 l/m 0 min 0 min 0 W/m 6,4 km/h (2 Bft) 97,87 %
04.06.2022 01:58 17,2 C 16,1 C 12,8 C 71 % 1017,5 hPa 0,0 l/m 0 min 0 min 0 W/m 9,7 km/h (2 Bft) 97,87 %
04.06.2022 02:00 17,2 C 16,1 C 12,8 C 71 % 1017,5 hPa 0,0 l/m 0 min 0 min 0 W/m 12,9 km/h (3 Bft) 95,74 %
04.06.2022 02:02 17,2 C 16,1 C 12,8 C 71 % 1017,5 hPa 0,0 l/m 0 min 0 min 0 W/m 6,4 km/h (2 Bft) 98,11 %
04.06.2022 02:04 17,1 C 16,1 C 12,8 C 71 % 1017,5 hPa 0,0 l/m 0 min 0 min 0 W/m 3,2 km/h (1 Bft) 97,87 %
04.06.2022 02:06 17,1 C 16,1 C 12,8 C 71 % 1017,4 hPa 0,0 l/m 0 min 0 min 0 W/m 19,3 km/h (3 Bft) 97,87 %
04.06.2022 02:08 17,1 C 16,1 C 12,8 C 71 % 1017,5 hPa 0,0 l/m 0 min 0 min 0 W/m 12,9 km/h (3 Bft) 97,83 %
04.06.2022 02:10 17,1 C 16,1 C 12,8 C 71 % 1017,5 hPa 0,0 l/m 0 min 0 min 0 W/m 12,9 km/h (3 Bft) 97,87 %
04.06.2022 02:12 17,0 C 16,1 C 12,8 C 71 % 1017,5 hPa 0,0 l/m 0 min 0 min 0 W/m 16,1 km/h (3 Bft) 95,74 %
04.06.2022 02:14 16,9 C 16,1 C 12,2 C 72 % 1017,5 hPa 0,0 l/m 0 min 0 min 0 W/m 6,4 km/h (2 Bft) 97,87 %
04.06.2022 02:16 16,9 C 16,1 C 12,2 C 72 % 1017,4 hPa 0,0 l/m 0 min 0 min 0 W/m 6,4 km/h (2 Bft) 97,87 %
04.06.2022 02:18 16,9 C 15,6 C 12,2 C 72 % 1017,4 hPa 0,0 l/m 0 min 0 min 0 W/m 3,2 km/h (1 Bft) 97,87 %
04.06.2022 02:20 16,8 C 15,6 C 12,2 C 72 % 1017,3 hPa 0,0 l/m 0 min 0 min 0 W/m 6,4 km/h (2 Bft) 97,83 %
04.06.2022 02:22 16,8 C 15,6 C 12,2 C 72 % 1017,3 hPa 0,0 l/m 0 min 0 min 0 W/m 6,4 km/h (2 Bft) 97,87 %
04.06.2022 02:24 16,7 C 15,6 C 12,2 C 72 % 1017,3 hPa 0,0 l/m 0 min 0 min 0 W/m 9,7 km/h (2 Bft) 97,87 %
04.06.2022 02:26 16,7 C 15,6 C 12,2 C 72 % 1017,4 hPa 0,0 l/m 0 min 0 min 0 W/m 12,9 km/h (3 Bft) 95,74 %
04.06.2022 02:28 16,7 C 15,6 C 12,2 C 72 % 1017,4 hPa 0,0 l/m 0 min 0 min 0 W/m 6,4 km/h (2 Bft) 97,87 %
04.06.2022 02:30 16,6 C 15,6 C 12,2 C 72 % 1017,4 hPa 0,0 l/m 0 min 0 min 0 W/m 3,2 km/h (1 Bft) 97,83 %
04.06.2022 02:32 16,6 C 15,6 C 12,2 C 73 % 1017,4 hPa 0,0 l/m 0 min 0 min 0 W/m 12,9 km/h (3 Bft) 100,00 %
04.06.2022 02:34 16,6 C 15,6 C 12,2 C 73 % 1017,4 hPa 0,0 l/m 0 min 0 min 0 W/m 9,7 km/h (2 Bft) 97,87 %
04.06.2022 02:36 16,6 C 15,6 C 12,2 C 73 % 1017,4 hPa 0,0 l/m 0 min 0 min 0 W/m 3,2 km/h (1 Bft) 100,00 %
04.06.2022 02:38 16,5 C 15,6 C 12,2 C 73 % 1017,3 hPa 0,0 l/m 0 min 0 min 0 W/m 6,4 km/h (2 Bft) 100,00 %
04.06.2022 02:40 16,5 C 15,6 C 12,2 C 73 % 1017,3 hPa 0,0 l/m 0 min 0 min 0 W/m 16,1 km/h (3 Bft) 100,00 %
04.06.2022 02:42 16,5 C 15,6 C 12,2 C 73 % 1017,3 hPa 0,0 l/m 0 min 0 min 0 W/m 6,4 km/h (2 Bft) 97,83 %
04.06.2022 02:44 16,4 C 15,6 C 12,2 C 73 % 1017,3 hPa 0,0 l/m 0 min 0 min 0 W/m 9,7 km/h (2 Bft) 97,87 %
04.06.2022 02:46 16,4 C 15,6 C 12,2 C 73 % 1017,4 hPa 0,0 l/m 0 min 0 min 0 W/m 12,9 km/h (3 Bft) 100,00 %
04.06.2022 02:48 16,4 C 15,6 C 12,2 C 73 % 1017,6 hPa 0,0 l/m 0 min 0 min 0 W/m 12,9 km/h (3 Bft) 100,00 %
04.06.2022 02:50 16,4 C 15,6 C 12,2 C 74 % 1017,6 hPa 0,0 l/m 0 min 0 min 0 W/m 6,4 km/h (2 Bft) 97,87 %
04.06.2022 02:52 16,4 C 15,6 C 12,2 C 74 % 1017,7 hPa 0,0 l/m 0 min 0 min 0 W/m 3,2 km/h (1 Bft) 97,87 %
04.06.2022 02:54 16,4 C 15,6 C 12,2 C 74 % 1017,8 hPa 0,0 l/m 0 min 0 min 0 W/m 6,4 km/h (2 Bft) 97,83 %
04.06.2022 02:56 16,4 C 15,6 C 12,2 C 74 % 1017,7 hPa 0,0 l/m 0 min 0 min 0 W/m 3,2 km/h (1 Bft) 97,87 %
04.06.2022 02:58 16,3 C 15,6 C 12,2 C 74 % 1017,7 hPa 0,0 l/m 0 min 0 min 0 W/m 3,2 km/h (1 Bft) 97,87 %
04.06.2022 03:00 16,4 C 15,6 C 12,2 C 74 % 1017,7 hPa 0,0 l/m 0 min 0 min 0 W/m 3,2 km/h (1 Bft) 97,87 %
04.06.2022 03:02 16,4 C 15,6 C 12,2 C 74 % 1017,8 hPa 0,0 l/m 0 min 0 min 0 W/m 3,2 km/h (1 Bft) 97,87 %
04.06.2022 03:04 16,3 C 15,6 C 12,2 C 74 % 1017,7 hPa 0,0 l/m 0 min 0 min 0 W/m 6,4 km/h (2 Bft) 95,74 %
04.06.2022 03:06 16,3 C 15,6 C 12,2 C 74 % 1017,8 hPa 0,0 l/m 0 min 0 min 0 W/m 9,7 km/h (2 Bft) 97,83 %
04.06.2022 03:08 16,3 C 15,6 C 12,2 C 74 % 1017,8 hPa 0,0 l/m 0 min 0 min 0 W/m 12,9 km/h (3 Bft) 97,87 %
04.06.2022 03:10 16,3 C 15,6 C 11,7 C 74 % 1017,8 hPa 0,0 l/m 0 min 0 min 0 W/m 6,4 km/h (2 Bft) 97,87 %
04.06.2022 03:12 16,3 C 15,6 C 11,7 C 74 % 1017,9 hPa 0,0 l/m 0 min 0 min 0 W/m 6,4 km/h (2 Bft) 97,87 %
04.06.2022 03:14 16,2 C 15,6 C 11,7 C 74 % 1018,0 hPa 0,0 l/m 0 min 0 min 0 W/m 9,7 km/h (2 Bft) 97,87 %
04.06.2022 03:16 16,2 C 15,6 C 11,7 C 74 % 1018,0 hPa 0,0 l/m 0 min 0 min 0 W/m 6,4 km/h (2 Bft) 97,87 %
04.06.2022 03:18 16,2 C 15,0 C 11,7 C 74 % 1018,0 hPa 0,0 l/m 0 min 0 min 0 W/m 3,2 km/h (1 Bft) 97,83 %
04.06.2022 03:20 16,2 C 15,0 C 11,7 C 74 % 1018,0 hPa 0,0 l/m 0 min 0 min 0 W/m 6,4 km/h (2 Bft) 97,87 %
04.06.2022 03:22 16,1 C 15,0 C 11,7 C 74 % 1017,9 hPa 0,0 l/m 0 min 0 min 0 W/m 12,9 km/h (3 Bft) 97,87 %
04.06.2022 03:24 16,1 C 15,0 C 11,7 C 74 % 1018,0 hPa 0,0 l/m 0 min 0 min 0 W/m 6,4 km/h (2 Bft) 97,87 %
04.06.2022 03:26 16,1 C 15,0 C 11,7 C 74 % 1018,0 hPa 0,0 l/m 0 min 0 min 0 W/m 6,4 km/h (2 Bft) 97,87 %
04.06.2022 03:28 16,1 C 15,0 C 11,7 C 75 % 1018,0 hPa 0,0 l/m 0 min 0 min 0 W/m 9,7 km/h (2 Bft) 95,74 %
04.06.2022 03:30 16,1 C 15,0 C 11,7 C 75 % 1018,0 hPa 0,0 l/m 0 min 0 min 0 W/m 6,4 km/h (2 Bft) 97,83 %
04.06.2022 03:32 16,0 C 15,0 C 11,7 C 75 % 1018,1 hPa 0,0 l/m 0 min 0 min 0 W/m 6,4 km/h (2 Bft) 95,74 %
04.06.2022 03:34 16,0 C 15,0 C 11,7 C 75 % 1018,1 hPa 0,0 l/m 0 min 0 min 0 W/m 9,7 km/h (2 Bft) 97,87 %
04.06.2022 03:36 16,0 C 15,0 C 11,7 C 75 % 1018,1 hPa 0,0 l/m 0 min 0 min 0 W/m 12,9 km/h (3 Bft) 97,87 %
04.06.2022 03:38 16,0 C 15,0 C 11,7 C 75 % 1018,1 hPa 0,0 l/m 0 min 0 min 0 W/m 6,4 km/h (2 Bft) 97,87 %
04.06.2022 03:40 16,0 C 15,0 C 11,7 C 75 % 1018,1 hPa 0,0 l/m 0 min 0 min 0 W/m 12,9 km/h (3 Bft) 97,87 %
04.06.2022 03:42 15,9 C 15,0 C 11,7 C 75 % 1018,0 hPa 0,0 l/m 0 min 0 min 0 W/m 6,4 km/h (2 Bft) 97,83 %
04.06.2022 03:44 15,9 C 15,0 C 11,7 C 75 % 1018,1 hPa 0,0 l/m 0 min 0 min 0 W/m 9,7 km/h (2 Bft) 97,87 %
04.06.2022 03:46 15,9 C 15,0 C 11,7 C 75 % 1018,0 hPa 0,0 l/m 0 min 0 min 0 W/m 6,4 km/h (2 Bft) 95,74 %
04.06.2022 03:48 15,9 C 15,0 C 11,7 C 75 % 1018,0 hPa 0,0 l/m 0 min 0 min 0 W/m 9,7 km/h (2 Bft) 97,87 %
04.06.2022 03:50 15,9 C 15,0 C 11,7 C 75 % 1018,0 hPa 0,0 l/m 0 min 0 min 0 W/m 3,2 km/h (1 Bft) 93,62 %
04.06.2022 03:52 15,9 C 15,0 C 11,7 C 75 % 1018,1 hPa 0,0 l/m 0 min 0 min 0 W/m 6,4 km/h (2 Bft) 97,87 %
04.06.2022 03:54 15,8 C 15,0 C 11,7 C 76 % 1018,1 hPa 0,0 l/m 0 min 0 min 0 W/m 12,9 km/h (3 Bft) 97,83 %
04.06.2022 03:56 15,8 C 15,0 C 11,7 C 76 % 1018,1 hPa 0,0 l/m 0 min 0 min 0 W/m 12,9 km/h (3 Bft) 97,87 %
04.06.2022 03:58 15,8 C 15,0 C 11,7 C 76 % 1018,1 hPa 0,0 l/m 0 min 0 min 0 W/m 9,7 km/h (2 Bft) 97,87 %
04.06.2022 04:00 15,8 C 15,0 C 11,7 C 76 % 1018,2 hPa 0,0 l/m 0 min 0 min 0 W/m 6,4 km/h (2 Bft) 97,87 %
04.06.2022 04:02 15,8 C 15,0 C 11,7 C 76 % 1018,1 hPa 0,0 l/m 0 min 0 min 0 W/m 3,2 km/h (1 Bft) 100,00 %
04.06.2022 04:04 15,8 C 15,0 C 11,7 C 76 % 1018,1 hPa 0,0 l/m 0 min 0 min 0 W/m 6,4 km/h (2 Bft) 95,74 %
04.06.2022 04:06 15,7 C 15,0 C 11,7 C 76 % 1018,0 hPa 0,0 l/m 0 min 0 min 0 W/m 6,4 km/h (2 Bft) 93,48 %
04.06.2022 04:08 15,7 C 15,0 C 11,7 C 76 % 1018,0 hPa 0,0 l/m 0 min 0 min 0 W/m 6,4 km/h (2 Bft) 95,74 %
04.06.2022 04:10 15,7 C 15,0 C 11,1 C 76 % 1018,0 hPa 0,0 l/m 0 min 0 min 0 W/m 6,4 km/h (2 Bft) 97,87 %
04.06.2022 04:12 15,7 C 15,0 C 11,7 C 77 % 1018,0 hPa 0,0 l/m 0 min 0 min 0 W/m 6,4 km/h (2 Bft) 100,00 %
04.06.2022 04:14 15,7 C 15,0 C 11,1 C 77 % 1018,1 hPa 0,0 l/m 0 min 0 min 0 W/m 12,9 km/h (3 Bft) 100,00 %
04.06.2022 04:16 15,7 C 15,0 C 11,1 C 77 % 1018,0 hPa 0,0 l/m 0 min 0 min 0 W/m 3,2 km/h (1 Bft) 97,87 %
04.06.2022 04:18 15,7 C 15,0 C 11,1 C 77 % 1018,0 hPa 0,0 l/m 0 min 0 min 0 W/m 9,7 km/h (2 Bft) 100,00 %
04.06.2022 04:20 15,7 C 15,0 C 11,1 C 77 % 1018,0 hPa 0,0 l/m 0 min 0 min 0 W/m 6,4 km/h (2 Bft) 97,87 %
04.06.2022 04:22 15,6 C 14,4 C 11,1 C 77 % 1018,1 hPa 0,0 l/m 0 min 0 min 0 W/m 6,4 km/h (2 Bft) 100,00 %
04.06.2022 04:24 15,6 C 14,4 C 11,1 C 77 % 1018,0 hPa 0,0 l/m 0 min 0 min 0 W/m 6,4 km/h (2 Bft) 97,87 %
04.06.2022 04:26 15,6 C 14,4 C 11,1 C 77 % 1017,9 hPa 0,0 l/m 0 min 0 min 0 W/m 12,9 km/h (3 Bft) 97,87 %
04.06.2022 04:28 15,6 C 15,0 C 11,1 C 77 % 1017,9 hPa 0,0 l/m 0 min 0 min 0 W/m 6,4 km/h (2 Bft) 95,65 %
04.06.2022 04:30 15,6 C 14,4 C 11,1 C 78 % 1017,9 hPa 0,0 l/m 0 min 0 min 0 W/m 6,4 km/h (2 Bft) 95,74 %
04.06.2022 04:32 15,5 C 14,4 C 11,1 C 78 % 1017,8 hPa 0,0 l/m 0 min 0 min 0 W/m 12,9 km/h (3 Bft) 97,87 %
04.06.2022 04:34 15,5 C 14,4 C 11,1 C 78 % 1017,8 hPa 0,0 l/m 0 min 0 min 0 W/m 12,9 km/h (3 Bft) 93,62 %
04.06.2022 04:36 15,5 C 14,4 C 11,1 C 78 % 1017,9 hPa 0,0 l/m 0 min 0 min 0 W/m 6,4 km/h (2 Bft) 97,87 %
04.06.2022 04:38 15,4 C 14,4 C 11,1 C 78 % 1017,9 hPa 0,0 l/m 0 min 0 min 0 W/m 9,7 km/h (2 Bft) 97,87 %
04.06.2022 04:40 15,4 C 14,4 C 11,1 C 78 % 1017,8 hPa 0,0 l/m 0 min 0 min 0 W/m 16,1 km/h (3 Bft) 95,65 %
04.06.2022 04:42 15,4 C 14,4 C 11,1 C 78 % 1017,8 hPa 0,0 l/m 0 min 0 min 0 W/m 6,4 km/h (2 Bft) 91,49 %
04.06.2022 04:44 15,4 C 14,4 C 11,1 C 78 % 1017,9 hPa 0,0 l/m 0 min 0 min 0 W/m 9,7 km/h (2 Bft) 95,74 %
04.06.2022 04:46 15,4 C 14,4 C 11,1 C 78 % 1018,0 hPa 0,0 l/m 0 min 0 min 0 W/m 12,9 km/h (3 Bft) 95,74 %
04.06.2022 04:48 15,4 C 14,4 C 11,1 C 78 % 1018,0 hPa 0,0 l/m 0 min 0 min 0 W/m 6,4 km/h (2 Bft) 95,74 %
04.06.2022 04:50 15,4 C 14,4 C 11,1 C 78 % 1017,9 hPa 0,0 l/m 0 min 0 min 0 W/m 6,4 km/h (2 Bft) 95,74 %
04.06.2022 04:52 15,4 C 14,4 C 11,1 C 78 % 1017,8 hPa 0,0 l/m 0 min 0 min 0 W/m 6,4 km/h (2 Bft) 95,65 %
04.06.2022 04:54 15,4 C 14,4 C 11,1 C 78 % 1017,8 hPa 0,0 l/m 0 min 0 min 0 W/m 9,7 km/h (2 Bft) 95,74 %
04.06.2022 04:56 15,4 C 14,4 C 11,1 C 78 % 1017,8 hPa 0,0 l/m 0 min 0 min 0 W/m 6,4 km/h (2 Bft) 95,74 %
04.06.2022 04:58 15,3 C 14,4 C 11,1 C 78 % 1017,7 hPa 0,0 l/m 0 min 0 min 0 W/m 3,2 km/h (1 Bft) 93,62 %
04.06.2022 05:00 15,3 C 14,4 C 11,1 C 78 % 1017,7 hPa 0,0 l/m 0 min 0 min 0 W/m 12,9 km/h (3 Bft) 97,87 %
04.06.2022 05:02 15,3 C 14,4 C 11,1 C 78 % 1017,6 hPa 0,0 l/m 0 min 0 min 0 W/m 6,4 km/h (2 Bft) 95,74 %
04.06.2022 05:04 15,3 C 14,4 C 11,1 C 78 % 1017,6 hPa 0,0 l/m 0 min 0 min 0 W/m 12,9 km/h (3 Bft) 95,65 %
04.06.2022 05:06 15,3 C 14,4 C 11,1 C 78 % 1017,6 hPa 0,0 l/m 0 min 0 min 0 W/m 12,9 km/h (3 Bft) 95,74 %
04.06.2022 05:08 15,3 C 14,4 C 11,1 C 78 % 1017,6 hPa 0,0 l/m 0 min 0 min 0 W/m 16,1 km/h (3 Bft) 95,74 %
04.06.2022 05:10 15,3 C 14,4 C 11,1 C 78 % 1017,5 hPa 0,0 l/m 0 min 0 min 0 W/m 19,3 km/h (3 Bft) 95,74 %
04.06.2022 05:12 15,3 C 14,4 C 11,1 C 78 % 1017,5 hPa 0,0 l/m 0 min 0 min 0 W/m 12,9 km/h (3 Bft) 95,74 %
04.06.2022 05:14 15,2 C 14,4 C 11,1 C 78 % 1017,4 hPa 0,0 l/m 0 min 0 min 0 W/m 9,7 km/h (2 Bft) 100,00 %
04.06.2022 05:16 15,2 C 14,4 C 11,1 C 78 % 1017,4 hPa 0,0 l/m 0 min 0 min 4 W/m 19,3 km/h (3 Bft) 56,52 %
04.06.2022 05:18 15,2 C 14,4 C 11,1 C 78 % 1017,4 hPa 0,0 l/m 0 min 0 min 5 W/m 12,9 km/h (3 Bft) 100,00 %
04.06.2022 05:20 15,2 C 14,4 C 11,1 C 78 % 1017,4 hPa 0,0 l/m 0 min 0 min 5 W/m 19,3 km/h (3 Bft) 100,00 %
04.06.2022 05:22 15,2 C 14,4 C 11,1 C 78 % 1017,5 hPa 0,0 l/m 0 min 0 min 5 W/m 16,1 km/h (3 Bft) 100,00 %
04.06.2022 05:24 15,1 C 14,4 C 11,1 C 78 % 1017,5 hPa 0,0 l/m 0 min 0 min 5 W/m 6,4 km/h (2 Bft) 100,00 %
04.06.2022 05:26 15,1 C 14,4 C 11,1 C 78 % 1017,5 hPa 0,0 l/m 0 min 0 min 5 W/m 12,9 km/h (3 Bft) 100,00 %
04.06.2022 05:28 15,1 C 14,4 C 11,1 C 78 % 1017,6 hPa 0,0 l/m 0 min 0 min 5 W/m 12,9 km/h (3 Bft) 100,00 %
04.06.2022 05:30 15,1 C 14,4 C 11,1 C 78 % 1017,7 hPa 0,0 l/m 0 min 0 min 5 W/m 12,9 km/h (3 Bft) 100,00 %
04.06.2022 05:32 15,1 C 14,4 C 11,1 C 78 % 1017,6 hPa 0,0 l/m 0 min 0 min 5 W/m 9,7 km/h (2 Bft) 100,00 %
04.06.2022 05:34 15,1 C 14,4 C 11,1 C 78 % 1017,7 hPa 0,0 l/m 0 min 0 min 7 W/m 12,9 km/h (3 Bft) 100,00 %
04.06.2022 05:36 15,1 C 14,4 C 10,6 C 78 % 1017,5 hPa 0,0 l/m 0 min 0 min 7 W/m 9,7 km/h (2 Bft) 100,00 %
04.06.2022 05:38 15,1 C 14,4 C 10,6 C 78 % 1017,6 hPa 0,0 l/m 0 min 0 min 9 W/m 16,1 km/h (3 Bft) 100,00 %
04.06.2022 05:40 15,0 C 14,4 C 11,1 C 78 % 1017,6 hPa 0,0 l/m 0 min 0 min 10 W/m 12,9 km/h (3 Bft) 100,00 %
04.06.2022 05:42 15,0 C 14,4 C 10,6 C 78 % 1017,7 hPa 0,0 l/m 0 min 0 min 11 W/m 6,4 km/h (2 Bft) 100,00 %
04.06.2022 05:44 15,0 C 14,4 C 10,6 C 79 % 1017,7 hPa 0,0 l/m 0 min 0 min 12 W/m 6,4 km/h (2 Bft) 100,00 %
04.06.2022 05:46 15,0 C 13,9 C 10,6 C 78 % 1017,7 hPa 0,0 l/m 0 min 0 min 14 W/m 6,4 km/h (2 Bft) 100,00 %
04.06.2022 05:48 14,9 C 13,9 C 10,6 C 79 % 1017,7 hPa 0,0 l/m 0 min 0 min 16 W/m 16,1 km/h (3 Bft) 100,00 %
04.06.2022 05:50 14,9 C 13,9 C 10,6 C 78 % 1017,7 hPa 0,0 l/m 0 min 0 min 16 W/m 12,9 km/h (3 Bft) 100,00 %
04.06.2022 05:52 14,9 C 13,9 C 10,6 C 78 % 1017,9 hPa 0,0 l/m 0 min 0 min 16 W/m 16,1 km/h (3 Bft) 100,00 %
04.06.2022 05:54 14,9 C 13,9 C 10,6 C 79 % 1017,8 hPa 0,0 l/m 0 min 0 min 16 W/m 9,7 km/h (2 Bft) 100,00 %
04.06.2022 05:56 14,9 C 13,9 C 10,6 C 79 % 1017,8 hPa 0,0 l/m 0 min 0 min 17 W/m 19,3 km/h (3 Bft) 100,00 %
04.06.2022 05:58 14,8 C 13,9 C 10,6 C 79 % 1017,9 hPa 0,0 l/m 0 min 0 min 18 W/m 9,7 km/h (2 Bft) 100,00 %
04.06.2022 06:00 14,8 C 13,9 C 10,6 C 79 % 1017,9 hPa 0,0 l/m 0 min 0 min 19 W/m 3,2 km/h (1 Bft) 97,87 %
04.06.2022 06:02 14,8 C 13,9 C 10,6 C 79 % 1018,0 hPa 0,0 l/m 0 min 0 min 21 W/m 6,4 km/h (2 Bft) 100,00 %
04.06.2022 06:04 14,8 C 13,9 C 10,6 C 79 % 1018,0 hPa 0,0 l/m 0 min 0 min 21 W/m 19,3 km/h (3 Bft) 100,00 %
04.06.2022 06:07 14,8 C 13,9 C 10,6 C 79 % 1018,0 hPa 0,0 l/m 0 min 0 min 23 W/m 12,9 km/h (3 Bft) 100,00 %
04.06.2022 06:08 14,8 C 13,9 C 10,6 C 79 % 1018,0 hPa 0,0 l/m 0 min 0 min 25 W/m 6,4 km/h (2 Bft) 100,00 %
04.06.2022 06:10 14,8 C 13,9 C 10,6 C 79 % 1018,0 hPa 0,0 l/m 0 min 0 min 26 W/m 6,4 km/h (2 Bft) 100,00 %
04.06.2022 06:12 14,8 C 13,9 C 10,6 C 79 % 1018,0 hPa 0,0 l/m 0 min 0 min 28 W/m 12,9 km/h (3 Bft) 100,00 %
04.06.2022 06:14 14,8 C 13,9 C 10,6 C 79 % 1018,0 hPa 0,0 l/m 0 min 0 min 30 W/m 9,7 km/h (2 Bft) 100,00 %
04.06.2022 06:16 14,8 C 13,9 C 10,6 C 79 % 1018,0 hPa 0,0 l/m 0 min 0 min 30 W/m 12,9 km/h (3 Bft) 100,00 %
04.06.2022 06:18 14,8 C 13,9 C 10,6 C 80 % 1018,1 hPa 0,0 l/m 0 min 0 min 30 W/m 3,2 km/h (1 Bft) 97,87 %
04.06.2022 06:20 14,8 C 13,9 C 10,6 C 80 % 1018,1 hPa 0,0 l/m 0 min 0 min 32 W/m 6,4 km/h (2 Bft) 97,87 %
04.06.2022 06:22 14,7 C 13,9 C 10,6 C 80 % 1018,1 hPa 0,0 l/m 0 min 0 min 32 W/m 6,4 km/h (2 Bft) 97,87 %
04.06.2022 06:24 14,8 C 13,9 C 10,6 C 80 % 1018,1 hPa 0,0 l/m 0 min 0 min 35 W/m 9,7 km/h (2 Bft) 97,87 %
04.06.2022 06:26 14,8 C 13,9 C 10,6 C 80 % 1018,1 hPa 0,0 l/m 0 min 0 min 38 W/m 16,1 km/h (3 Bft) 95,65 %
04.06.2022 06:28 14,7 C 14,4 C 10,6 C 80 % 1018,2 hPa 0,0 l/m 0 min 0 min 41 W/m 6,4 km/h (2 Bft) 95,74 %
04.06.2022 06:30 14,7 C 14,4 C 10,6 C 80 % 1018,2 hPa 0,0 l/m 0 min 0 min 44 W/m 12,9 km/h (3 Bft) 97,87 %
04.06.2022 06:32 14,7 C 14,4 C 10,6 C 80 % 1018,2 hPa 0,0 l/m 0 min 0 min 48 W/m 9,7 km/h (2 Bft) 97,87 %
04.06.2022 06:34 14,7 C 14,4 C 10,6 C 80 % 1018,2 hPa 0,0 l/m 0 min 0 min 49 W/m 6,4 km/h (2 Bft) 95,74 %
04.06.2022 06:36 14,7 C 14,4 C 10,6 C 80 % 1018,2 hPa 0,0 l/m 0 min 0 min 51 W/m 22,5 km/h (4 Bft) 95,74 %
04.06.2022 06:38 14,7 C 13,9 C 10,6 C 80 % 1018,2 hPa 0,0 l/m 0 min 0 min 51 W/m 16,1 km/h (3 Bft) 95,65 %
04.06.2022 06:40 14,7 C 13,9 C 10,6 C 80 % 1018,2 hPa 0,0 l/m 0 min 0 min 53 W/m 6,4 km/h (2 Bft) 95,74 %
04.06.2022 06:42 14,7 C 14,4 C 10,6 C 80 % 1018,2 hPa 0,0 l/m 0 min 0 min 53 W/m 16,1 km/h (3 Bft) 95,74 %
04.06.2022 06:44 14,7 C 14,4 C 10,6 C 80 % 1018,2 hPa 0,0 l/m 0 min 0 min 55 W/m 9,7 km/h (2 Bft) 95,74 %
04.06.2022 06:46 14,7 C 14,4 C 10,6 C 80 % 1018,2 hPa 0,0 l/m 0 min 0 min 60 W/m 6,4 km/h (2 Bft) 93,62 %
04.06.2022 06:48 14,7 C 14,4 C 10,6 C 80 % 1018,2 hPa 0,0 l/m 0 min 0 min 65 W/m 16,1 km/h (3 Bft) 95,74 %
04.06.2022 06:50 14,7 C 14,4 C 10,6 C 80 % 1018,2 hPa 0,0 l/m 0 min 0 min 69 W/m 6,4 km/h (2 Bft) 95,65 %
04.06.2022 06:52 14,7 C 14,4 C 10,6 C 80 % 1018,2 hPa 0,0 l/m 0 min 0 min 71 W/m 3,2 km/h (1 Bft) 93,62 %
04.06.2022 06:54 14,7 C 14,4 C 10,6 C 80 % 1018,2 hPa 0,0 l/m 0 min 0 min 76 W/m 12,9 km/h (3 Bft) 93,62 %
04.06.2022 06:56 14,7 C 14,4 C 10,6 C 81 % 1018,3 hPa 0,0 l/m 0 min 0 min 80 W/m 9,7 km/h (2 Bft) 95,74 %
04.06.2022 06:58 14,8 C 14,4 C 10,6 C 81 % 1018,3 hPa 0,0 l/m 0 min 0 min 85 W/m 16,1 km/h (3 Bft) 95,74 %
04.06.2022 07:00 14,8 C 14,4 C 10,6 C 80 % 1018,3 hPa 0,0 l/m 0 min 0 min 91 W/m 19,3 km/h (3 Bft) 93,62 %
04.06.2022 07:02 14,8 C 14,4 C 11,1 C 80 % 1018,3 hPa 0,0 l/m 0 min 0 min 95 W/m 16,1 km/h (3 Bft) 93,48 %
04.06.2022 07:04 14,8 C 14,4 C 11,1 C 80 % 1018,2 hPa 0,0 l/m 0 min 0 min 98 W/m 16,1 km/h (3 Bft) 97,87 %
04.06.2022 07:06 14,8 C 14,4 C 11,1 C 80 % 1018,2 hPa 0,0 l/m 0 min 0 min 99 W/m 9,7 km/h (2 Bft) 97,87 %
04.06.2022 07:08 14,9 C 14,4 C 11,1 C 80 % 1018,2 hPa 0,0 l/m 0 min 0 min 99 W/m 6,4 km/h (2 Bft) 100,00 %
04.06.2022 07:10 14,9 C 14,4 C 11,1 C 80 % 1018,2 hPa 0,0 l/m 0 min 0 min 100 W/m 9,7 km/h (2 Bft) 95,74 %
04.06.2022 07:12 14,9 C 14,4 C 11,1 C 80 % 1018,3 hPa 0,0 l/m 0 min 0 min 101 W/m 9,7 km/h (2 Bft) 95,74 %
04.06.2022 07:14 14,9 C 14,4 C 11,1 C 80 % 1018,2 hPa 0,0 l/m 0 min 0 min 104 W/m 16,1 km/h (3 Bft) 95,65 %
04.06.2022 07:16 14,9 C 14,4 C 11,1 C 80 % 1018,3 hPa 0,0 l/m 0 min 0 min 105 W/m 19,3 km/h (3 Bft) 97,87 %
04.06.2022 07:18 14,9 C 14,4 C 11,1 C 80 % 1018,4 hPa 0,0 l/m 0 min 0 min 107 W/m 16,1 km/h (3 Bft) 95,74 %
04.06.2022 07:20 15,0 C 15,0 C 11,1 C 80 % 1018,4 hPa 0,0 l/m 0 min 0 min 106 W/m 6,4 km/h (2 Bft) 97,87 %
04.06.2022 07:22 15,0 C 15,0 C 11,1 C 80 % 1018,4 hPa 0,0 l/m 0 min 0 min 104 W/m 9,7 km/h (2 Bft) 97,87 %
04.06.2022 07:24 15,0 C 15,0 C 11,1 C 80 % 1018,4 hPa 0,0 l/m 0 min 0 min 104 W/m 6,4 km/h (2 Bft) 97,87 %
04.06.2022 07:26 15,1 C 15,0 C 11,1 C 80 % 1018,4 hPa 0,0 l/m 0 min 0 min 106 W/m 6,4 km/h (2 Bft) 95,65 %
04.06.2022 07:28 15,1 C 15,0 C 11,1 C 80 % 1018,5 hPa 0,0 l/m 0 min 0 min 110 W/m 12,9 km/h (3 Bft) 95,74 %
04.06.2022 07:30 15,1 C 15,0 C 11,1 C 80 % 1018,6 hPa 0,0 l/m 0 min 0 min 116 W/m 9,7 km/h (2 Bft) 97,87 %
04.06.2022 07:32 15,1 C 15,0 C 11,1 C 80 % 1018,6 hPa 0,0 l/m 0 min 0 min 125 W/m 9,7 km/h (2 Bft) 97,87 %
04.06.2022 07:34 15,1 C 15,0 C 11,1 C 80 % 1018,7 hPa 0,0 l/m 0 min 0 min 134 W/m 9,7 km/h (2 Bft) 97,87 %
04.06.2022 07:36 15,2 C 15,0 C 11,1 C 80 % 1018,7 hPa 0,0 l/m 0 min 0 min 143 W/m 9,7 km/h (2 Bft) 97,87 %
04.06.2022 07:38 15,2 C 15,0 C 11,7 C 80 % 1018,7 hPa 0,0 l/m 0 min 0 min 149 W/m 6,4 km/h (2 Bft) 97,83 %
04.06.2022 07:40 15,2 C 15,6 C 11,7 C 80 % 1018,7 hPa 0,0 l/m 2 min 0 min 167 W/m 6,4 km/h (2 Bft) 97,87 %
04.06.2022 07:42 15,3 C 15,6 C 11,7 C 80 % 1018,7 hPa 0,0 l/m 2 min 0 min 190 W/m 16,1 km/h (3 Bft) 97,87 %
04.06.2022 07:44 15,3 C 15,6 C 11,7 C 79 % 1018,6 hPa 0,0 l/m 2 min 0 min 204 W/m 9,7 km/h (2 Bft) 97,87 %
04.06.2022 07:46 15,4 C 15,6 C 11,7 C 79 % 1018,7 hPa 0,0 l/m 2 min 0 min 193 W/m 12,9 km/h (3 Bft) 97,87 %
04.06.2022 07:48 15,4 C 15,6 C 11,7 C 79 % 1018,6 hPa 0,0 l/m 2 min 0 min 181 W/m 9,7 km/h (2 Bft) 97,87 %
04.06.2022 07:50 15,4 C 15,6 C 11,7 C 79 % 1018,7 hPa 0,0 l/m 0 min 0 min 166 W/m 16,1 km/h (3 Bft) 97,83 %
04.06.2022 07:52 15,5 C 15,6 C 11,7 C 79 % 1018,7 hPa 0,0 l/m 0 min 0 min 166 W/m 9,7 km/h (2 Bft) 97,87 %
04.06.2022 07:54 15,6 C 15,6 C 11,7 C 79 % 1018,8 hPa 0,0 l/m 0 min 0 min 180 W/m 12,9 km/h (3 Bft) 97,87 %
04.06.2022 07:56 15,6 C 15,6 C 11,7 C 79 % 1018,8 hPa 0,0 l/m 2 min 0 min 189 W/m 9,7 km/h (2 Bft) 97,87 %
04.06.2022 07:58 15,6 C 15,6 C 11,7 C 79 % 1018,7 hPa 0,0 l/m 2 min 0 min 200 W/m 6,4 km/h (2 Bft) 95,74 %
04.06.2022 08:00 15,6 C 15,6 C 11,7 C 78 % 1018,8 hPa 0,0 l/m 0 min 0 min 162 W/m 16,1 km/h (3 Bft) 100,00 %
04.06.2022 08:02 15,6 C 15,6 C 11,7 C 78 % 1018,8 hPa 0,0 l/m 0 min 0 min 146 W/m 19,3 km/h (3 Bft) 100,00 %
04.06.2022 08:04 15,7 C 15,6 C 11,7 C 78 % 1018,7 hPa 0,0 l/m 0 min 0 min 150 W/m 12,9 km/h (3 Bft) 100,00 %
04.06.2022 08:06 15,6 C 15,6 C 11,7 C 78 % 1018,9 hPa 0,0 l/m 0 min 0 min 156 W/m 12,9 km/h (3 Bft) 97,87 %
04.06.2022 08:08 15,7 C 15,6 C 11,7 C 78 % 1018,8 hPa 0,0 l/m 0 min 0 min 164 W/m 12,9 km/h (3 Bft) 100,00 %
04.06.2022 08:10 15,7 C 15,6 C 11,7 C 78 % 1018,8 hPa 0,0 l/m 0 min 0 min 168 W/m 9,7 km/h (2 Bft) 100,00 %
04.06.2022 08:12 15,6 C 15,6 C 11,7 C 78 % 1018,9 hPa 0,0 l/m 0 min 0 min 170 W/m 12,9 km/h (3 Bft) 97,87 %
04.06.2022 08:14 15,6 C 15,6 C 11,7 C 78 % 1018,9 hPa 0,0 l/m 0 min 0 min 169 W/m 12,9 km/h (3 Bft) 100,00 %
04.06.2022 08:16 15,7 C 15,6 C 11,7 C 78 % 1018,8 hPa 0,0 l/m 0 min 0 min 165 W/m 9,7 km/h (2 Bft) 100,00 %
04.06.2022 08:18 15,7 C 15,6 C 11,7 C 78 % 1018,8 hPa 0,0 l/m 0 min 0 min 163 W/m 9,7 km/h (2 Bft) 100,00 %
04.06.2022 08:20 15,7 C 15,6 C 11,7 C 78 % 1018,8 hPa 0,0 l/m 0 min 0 min 164 W/m 9,7 km/h (2 Bft) 100,00 %
04.06.2022 08:22 15,7 C 15,6 C 11,7 C 79 % 1018,9 hPa 0,0 l/m 0 min 0 min 169 W/m 9,7 km/h (2 Bft) 100,00 %
04.06.2022 08:24 15,7 C 15,6 C 11,7 C 78 % 1018,8 hPa 0,0 l/m 0 min 0 min 177 W/m 12,9 km/h (3 Bft) 100,00 %
04.06.2022 08:26 15,8 C 16,1 C 12,2 C 78 % 1018,8 hPa 0,0 l/m 0 min 0 min 196 W/m 6,4 km/h (2 Bft) 100,00 %
04.06.2022 08:28 15,8 C 16,1 C 12,2 C 78 % 1018,8 hPa 0,0 l/m 0 min 0 min 213 W/m 9,7 km/h (2 Bft) 100,00 %
04.06.2022 08:30 15,8 C 16,1 C 12,2 C 78 % 1018,8 hPa 0,0 l/m 0 min 0 min 226 W/m 12,9 km/h (3 Bft) 100,00 %
04.06.2022 08:32 15,8 C 16,1 C 12,2 C 78 % 1018,8 hPa 0,0 l/m 0 min 0 min 226 W/m 6,4 km/h (2 Bft) 97,87 %
04.06.2022 08:34 15,9 C 16,7 C 12,2 C 79 % 1018,8 hPa 0,0 l/m 2 min 0 min 238 W/m 6,4 km/h (2 Bft) 97,87 %
04.06.2022 08:36 16,0 C 16,7 C 12,8 C 79 % 1018,7 hPa 0,0 l/m 2 min 0 min 238 W/m 9,7 km/h (2 Bft) 97,87 %
04.06.2022 08:38 16,1 C 16,7 C 12,8 C 78 % 1018,8 hPa 0,0 l/m 0 min 0 min 235 W/m 9,7 km/h (2 Bft) 95,65 %
04.06.2022 08:40 16,1 C 16,7 C 12,8 C 78 % 1018,7 hPa 0,0 l/m 2 min 0 min 244 W/m 9,7 km/h (2 Bft) 95,74 %
04.06.2022 08:42 16,2 C 16,7 C 12,8 C 78 % 1018,8 hPa 0,0 l/m 2 min 0 min 251 W/m 12,9 km/h (3 Bft) 97,87 %
04.06.2022 08:44 16,2 C 16,7 C 12,8 C 77 % 1018,8 hPa 0,0 l/m 2 min 0 min 250 W/m 19,3 km/h (3 Bft) 97,87 %
04.06.2022 08:46 16,2 C 16,7 C 12,8 C 77 % 1018,9 hPa 0,0 l/m 2 min 0 min 249 W/m 12,9 km/h (3 Bft) 97,87 %
04.06.2022 08:48 16,3 C 17,2 C 12,8 C 78 % 1019,0 hPa 0,0 l/m 2 min 0 min 252 W/m 9,7 km/h (2 Bft) 97,87 %
04.06.2022 08:50 16,3 C 17,2 C 12,8 C 78 % 1019,1 hPa 0,0 l/m 0 min 0 min 253 W/m 6,4 km/h (2 Bft) 95,65 %
04.06.2022 08:52 16,4 C 17,2 C 12,8 C 77 % 1019,1 hPa 0,0 l/m 2 min 0 min 262 W/m 9,7 km/h (2 Bft) 97,87 %
04.06.2022 08:54 16,4 C 17,2 C 12,8 C 77 % 1019,2 hPa 0,0 l/m 2 min 0 min 261 W/m 9,7 km/h (2 Bft) 95,74 %
04.06.2022 08:56 16,4 C 17,2 C 12,8 C 77 % 1019,2 hPa 0,0 l/m 0 min 0 min 246 W/m 9,7 km/h (2 Bft) 97,87 %
04.06.2022 08:58 16,6 C 17,2 C 12,8 C 77 % 1019,2 hPa 0,0 l/m 0 min 0 min 257 W/m 12,9 km/h (3 Bft) 97,87 %
04.06.2022 09:00 16,6 C 17,2 C 12,8 C 77 % 1019,2 hPa 0,0 l/m 0 min 0 min 249 W/m 16,1 km/h (3 Bft) 95,74 %
04.06.2022 09:02 16,6 C 17,2 C 12,8 C 77 % 1019,3 hPa 0,0 l/m 0 min 0 min 235 W/m 12,9 km/h (3 Bft) 95,65 %
04.06.2022 09:04 16,6 C 17,2 C 13,3 C 77 % 1019,3 hPa 0,0 l/m 0 min 0 min 224 W/m 9,7 km/h (2 Bft) 95,74 %
04.06.2022 09:06 16,7 C 17,2 C 12,8 C 77 % 1019,3 hPa 0,0 l/m 0 min 0 min 219 W/m 9,7 km/h (2 Bft) 97,87 %
04.06.2022 09:08 16,7 C 17,8 C 12,8 C 77 % 1019,4 hPa 0,0 l/m 0 min 0 min 225 W/m 6,4 km/h (2 Bft) 97,87 %
04.06.2022 09:10 16,7 C 17,2 C 12,8 C 77 % 1019,4 hPa 0,0 l/m 0 min 0 min 231 W/m 16,1 km/h (3 Bft) 97,87 %
04.06.2022 09:12 16,7 C 17,2 C 12,8 C 77 % 1019,3 hPa 0,0 l/m 0 min 0 min 239 W/m 9,7 km/h (2 Bft) 97,87 %
04.06.2022 09:14 16,7 C 17,2 C 12,8 C 77 % 1019,4 hPa 0,0 l/m 0 min 0 min 250 W/m 9,7 km/h (2 Bft) 97,83 %
04.06.2022 09:16 16,7 C 17,2 C 13,3 C 77 % 1019,4 hPa 0,0 l/m 0 min 0 min 263 W/m 9,7 km/h (2 Bft) 95,74 %
04.06.2022 09:18 16,8 C 17,8 C 13,3 C 76 % 1019,4 hPa 0,0 l/m 0 min 0 min 274 W/m 6,4 km/h (2 Bft) 95,74 %
04.06.2022 09:20 16,8 C 17,8 C 13,3 C 76 % 1019,4 hPa 0,0 l/m 0 min 0 min 282 W/m 9,7 km/h (2 Bft) 97,87 %
04.06.2022 09:22 16,8 C 17,8 C 13,3 C 76 % 1019,4 hPa 0,0 l/m 0 min 0 min 282 W/m 9,7 km/h (2 Bft) 97,87 %
04.06.2022 09:24 16,8 C 17,8 C 13,3 C 76 % 1019,4 hPa 0,0 l/m 0 min 0 min 292 W/m 12,9 km/h (3 Bft) 95,74 %
04.06.2022 09:26 16,9 C 17,8 C 13,3 C 76 % 1019,4 hPa 0,0 l/m 0 min 0 min 288 W/m 12,9 km/h (3 Bft) 95,65 %
04.06.2022 09:28 16,9 C 17,8 C 13,3 C 75 % 1019,3 hPa 0,0 l/m 0 min 0 min 292 W/m 9,7 km/h (2 Bft) 97,87 %
04.06.2022 09:30 16,9 C 17,2 C 13,3 C 75 % 1019,4 hPa 0,0 l/m 0 min 0 min 292 W/m 12,9 km/h (3 Bft) 97,87 %
04.06.2022 09:32 17,0 C 17,8 C 13,3 C 75 % 1019,3 hPa 0,0 l/m 0 min 0 min 279 W/m 9,7 km/h (2 Bft) 95,74 %
04.06.2022 09:34 17,1 C 17,8 C 13,3 C 76 % 1019,3 hPa 0,0 l/m 0 min 0 min 271 W/m 6,4 km/h (2 Bft) 97,87 %
04.06.2022 09:36 17,1 C 17,8 C 13,3 C 76 % 1019,4 hPa 0,0 l/m 0 min 0 min 266 W/m 9,7 km/h (2 Bft) 97,87 %
04.06.2022 09:38 17,1 C 17,2 C 13,3 C 75 % 1019,4 hPa 0,0 l/m 0 min 0 min 263 W/m 16,1 km/h (3 Bft) 97,83 %
04.06.2022 09:40 17,1 C 17,2 C 13,3 C 75 % 1019,4 hPa 0,0 l/m 0 min 0 min 265 W/m 12,9 km/h (3 Bft) 100,00 %
04.06.2022 09:42 17,1 C 17,2 C 13,3 C 75 % 1019,4 hPa 0,0 l/m 0 min 0 min 273 W/m 12,9 km/h (3 Bft) 97,87 %
04.06.2022 09:44 17,1 C 17,2 C 13,3 C 75 % 1019,4 hPa 0,0 l/m 0 min 0 min 285 W/m 16,1 km/h (3 Bft) 97,87 %
04.06.2022 09:46 17,1 C 17,2 C 13,3 C 76 % 1019,4 hPa 0,0 l/m 0 min 0 min 281 W/m 12,9 km/h (3 Bft) 100,00 %
04.06.2022 09:48 17,2 C 17,8 C 13,3 C 76 % 1019,4 hPa 0,0 l/m 0 min 0 min 279 W/m 9,7 km/h (2 Bft) 100,00 %
04.06.2022 09:50 17,2 C 17,2 C 13,3 C 76 % 1019,3 hPa 0,0 l/m 0 min 0 min 285 W/m 12,9 km/h (3 Bft) 100,00 %
04.06.2022 09:52 17,2 C 17,8 C 13,3 C 75 % 1019,3 hPa 0,0 l/m 0 min 0 min 286 W/m 9,7 km/h (2 Bft) 97,87 %
04.06.2022 09:54 17,3 C 17,8 C 13,3 C 75 % 1019,3 hPa 0,0 l/m 0 min 0 min 280 W/m 12,9 km/h (3 Bft) 100,00 %
04.06.2022 09:56 17,3 C 17,8 C 13,9 C 75 % 1019,3 hPa 0,0 l/m 0 min 0 min 281 W/m 9,7 km/h (2 Bft) 100,00 %
04.06.2022 09:58 17,3 C 17,8 C 13,9 C 75 % 1019,4 hPa 0,0 l/m 0 min 0 min 286 W/m 6,4 km/h (2 Bft) 97,87 %
04.06.2022 10:00 17,4 C 17,8 C 13,9 C 76 % 1019,3 hPa 0,0 l/m 0 min 0 min 294 W/m 6,4 km/h (2 Bft) 95,74 %
04.06.2022 10:02 17,4 C 18,3 C 13,9 C 75 % 1019,3 hPa 0,0 l/m 0 min 0 min 303 W/m 6,4 km/h (2 Bft) 100,00 %
04.06.2022 10:04 17,6 C 18,3 C 13,9 C 76 % 1019,3 hPa 0,0 l/m 0 min 0 min 326 W/m 6,4 km/h (2 Bft) 100,00 %
04.06.2022 10:06 17,6 C 18,9 C 14,4 C 76 % 1019,3 hPa 0,0 l/m 0 min 0 min 339 W/m 9,7 km/h (2 Bft) 100,00 %
04.06.2022 10:08 17,7 C 18,9 C 14,4 C 76 % 1019,3 hPa 0,0 l/m 2 min 0 min 362 W/m 6,4 km/h (2 Bft) 97,87 %
04.06.2022 10:10 17,8 C 18,9 C 14,4 C 76 % 1019,3 hPa 0,0 l/m 0 min 0 min 339 W/m 9,7 km/h (2 Bft) 100,00 %
04.06.2022 10:12 17,8 C 19,4 C 14,4 C 76 % 1019,4 hPa 0,0 l/m 0 min 0 min 322 W/m 12,9 km/h (3 Bft) 100,00 %
04.06.2022 10:14 17,8 C 18,9 C 14,4 C 75 % 1019,3 hPa 0,0 l/m 0 min 0 min 306 W/m 12,9 km/h (3 Bft) 100,00 %
04.06.2022 10:16 17,8 C 18,9 C 14,4 C 74 % 1019,3 hPa 0,0 l/m 0 min 0 min 305 W/m 16,1 km/h (3 Bft) 95,74 %
04.06.2022 10:18 17,9 C 18,9 C 14,4 C 74 % 1019,3 hPa 0,0 l/m 0 min 0 min 313 W/m 6,4 km/h (2 Bft) 100,00 %
04.06.2022 10:20 17,9 C 18,9 C 14,4 C 75 % 1019,2 hPa 0,0 l/m 0 min 0 min 302 W/m 9,7 km/h (2 Bft) 95,74 %
04.06.2022 10:22 17,9 C 18,9 C 14,4 C 75 % 1019,1 hPa 0,0 l/m 0 min 0 min 293 W/m 6,4 km/h (2 Bft) 48,78 %
04.06.2022 10:24 18,0 C 18,9 C 14,4 C 75 % 1019,1 hPa 0,0 l/m 0 min 0 min 312 W/m 9,7 km/h (2 Bft) 95,74 %
04.06.2022 10:26 18,0 C 18,3 C 14,4 C 74 % 1019,2 hPa 0,0 l/m 0 min 0 min 311 W/m 9,7 km/h (2 Bft) 95,65 %
04.06.2022 10:28 18,0 C 18,9 C 14,4 C 74 % 1019,2 hPa 0,0 l/m 0 min 0 min 313 W/m 9,7 km/h (2 Bft) 97,87 %
04.06.2022 10:30 18,0 C 18,3 C 14,4 C 74 % 1019,1 hPa 0,0 l/m 0 min 0 min 315 W/m 6,4 km/h (2 Bft) 97,87 %
04.06.2022 10:32 18,1 C 18,3 C 14,4 C 74 % 1019,1 hPa 0,0 l/m 0 min 0 min 317 W/m 12,9 km/h (3 Bft) 95,74 %
04.06.2022 10:34 18,1 C 18,9 C 14,4 C 74 % 1019,1 hPa 0,0 l/m 0 min 0 min 314 W/m 9,7 km/h (2 Bft) 97,87 %
04.06.2022 10:36 18,1 C 18,9 C 14,4 C 74 % 1019,2 hPa 0,0 l/m 0 min 0 min 307 W/m 9,7 km/h (2 Bft) 95,74 %
04.06.2022 10:38 18,2 C 18,9 C 14,4 C 74 % 1019,2 hPa 0,0 l/m 0 min 0 min 302 W/m 6,4 km/h (2 Bft) 95,65 %
04.06.2022 10:40 18,2 C 18,9 C 14,4 C 74 % 1019,3 hPa 0,0 l/m 0 min 0 min 296 W/m 19,3 km/h (3 Bft) 95,74 %
04.06.2022 10:42 18,2 C 18,9 C 14,4 C 74 % 1019,3 hPa 0,0 l/m 0 min 0 min 298 W/m 6,4 km/h (2 Bft) 95,74 %
04.06.2022 10:44 18,2 C 18,9 C 14,4 C 74 % 1019,3 hPa 0,0 l/m 0 min 0 min 307 W/m 6,4 km/h (2 Bft) 93,62 %
04.06.2022 10:46 18,2 C 18,9 C 14,4 C 73 % 1019,3 hPa 0,0 l/m 0 min 0 min 316 W/m 6,4 km/h (2 Bft) 95,74 %
04.06.2022 10:48 18,3 C 18,9 C 15,0 C 74 % 1019,3 hPa 0,0 l/m 0 min 0 min 344 W/m 3,2 km/h (1 Bft) 95,74 %
04.06.2022 10:50 18,4 C 18,9 C 15,0 C 74 % 1019,3 hPa 0,0 l/m 0 min 0 min 345 W/m 12,9 km/h (3 Bft) 95,65 %
04.06.2022 10:52 18,4 C 18,9 C 15,0 C 73 % 1019,3 hPa 0,0 l/m 0 min 0 min 352 W/m 9,7 km/h (2 Bft) 95,74 %
04.06.2022 10:54 18,5 C 19,4 C 15,0 C 74 % 1019,3 hPa 0,0 l/m 0 min 0 min 358 W/m 9,7 km/h (2 Bft) 95,74 %
04.06.2022 10:56 18,5 C 19,4 C 15,0 C 73 % 1019,3 hPa 0,0 l/m 0 min 0 min 340 W/m 9,7 km/h (2 Bft) 95,74 %
04.06.2022 10:58 18,6 C 19,4 C 15,0 C 73 % 1019,3 hPa 0,0 l/m 0 min 0 min 329 W/m 9,7 km/h (2 Bft) 95,74 %
04.06.2022 11:00 18,6 C 19,4 C 15,0 C 73 % 1019,2 hPa 0,0 l/m 0 min 0 min 333 W/m 12,9 km/h (3 Bft) 95,74 %
04.06.2022 11:02 18,7 C 19,4 C 15,0 C 72 % 1019,3 hPa 0,0 l/m 0 min 0 min 333 W/m 12,9 km/h (3 Bft) 95,65 %
04.06.2022 11:04 18,7 C 19,4 C 15,0 C 72 % 1019,2 hPa 0,0 l/m 0 min 0 min 331 W/m 12,9 km/h (3 Bft) 95,74 %
04.06.2022 11:06 18,7 C 18,9 C 15,0 C 71 % 1019,3 hPa 0,0 l/m 0 min 0 min 320 W/m 12,9 km/h (3 Bft) 95,74 %
04.06.2022 11:08 18,7 C 18,9 C 15,0 C 72 % 1019,3 hPa 0,0 l/m 0 min 0 min 317 W/m 9,7 km/h (2 Bft) 95,74 %
04.06.2022 11:10 18,7 C 19,4 C 15,0 C 72 % 1019,3 hPa 0,0 l/m 0 min 0 min 327 W/m 9,7 km/h (2 Bft) 95,74 %
04.06.2022 11:12 18,7 C 19,4 C 15,0 C 72 % 1019,4 hPa 0,0 l/m 0 min 0 min 313 W/m 6,4 km/h (2 Bft) 95,74 %
04.06.2022 11:14 18,8 C 19,4 C 15,0 C 73 % 1019,4 hPa 0,0 l/m 0 min 0 min 303 W/m 16,1 km/h (3 Bft) 100,00 %
04.06.2022 11:16 18,8 C 19,4 C 15,0 C 72 % 1019,5 hPa 0,0 l/m 0 min 0 min 296 W/m 19,3 km/h (3 Bft) 100,00 %
04.06.2022 11:18 18,8 C 19,4 C 15,0 C 72 % 1019,5 hPa 0,0 l/m 0 min 0 min 289 W/m 12,9 km/h (3 Bft) 100,00 %
04.06.2022 11:20 18,8 C 18,9 C 15,0 C 72 % 1019,6 hPa 0,0 l/m 0 min 0 min 276 W/m 12,9 km/h (3 Bft) 100,00 %
04.06.2022 11:22 18,8 C 18,9 C 15,0 C 71 % 1019,6 hPa 0,0 l/m 0 min 0 min 263 W/m 12,9 km/h (3 Bft) 97,87 %
04.06.2022 11:24 18,8 C 18,9 C 15,0 C 72 % 1019,6 hPa 0,0 l/m 0 min 0 min 266 W/m 6,4 km/h (2 Bft) 100,00 %
04.06.2022 11:26 18,7 C 18,9 C 15,0 C 72 % 1019,6 hPa 0,0 l/m 0 min 0 min 293 W/m 19,3 km/h (3 Bft) 100,00 %
04.06.2022 11:28 18,7 C 18,9 C 15,0 C 71 % 1019,6 hPa 0,0 l/m 0 min 0 min 310 W/m 6,4 km/h (2 Bft) 97,87 %
04.06.2022 11:30 18,8 C 19,4 C 15,6 C 72 % 1019,6 hPa 0,0 l/m 0 min 0 min 360 W/m 12,9 km/h (3 Bft) 100,00 %
04.06.2022 11:32 18,8 C 19,4 C 15,6 C 72 % 1019,7 hPa 0,0 l/m 0 min 0 min 389 W/m 9,7 km/h (2 Bft) 97,87 %
04.06.2022 11:34 18,8 C 19,4 C 15,6 C 72 % 1019,7 hPa 0,0 l/m 2 min 0 min 465 W/m 22,5 km/h (4 Bft) 100,00 %
04.06.2022 11:36 18,9 C 20,0 C 16,1 C 72 % 1019,6 hPa 0,0 l/m 2 min 0 min 554 W/m 12,9 km/h (3 Bft) 95,74 %
04.06.2022 11:38 18,9 C 20,6 C 16,7 C 72 % 1019,6 hPa 0,0 l/m 2 min 0 min 656 W/m 12,9 km/h (3 Bft) 95,65 %
04.06.2022 11:40 19,1 C 20,6 C 16,7 C 71 % 1019,7 hPa 0,0 l/m 2 min 0 min 583 W/m 12,9 km/h (3 Bft) 97,87 %
04.06.2022 11:42 19,2 C 21,1 C 17,2 C 71 % 1019,6 hPa 0,0 l/m 2 min 0 min 631 W/m 12,9 km/h (3 Bft) 97,87 %
04.06.2022 11:44 19,3 C 21,1 C 17,8 C 71 % 1019,6 hPa 0,0 l/m 2 min 0 min 682 W/m 12,9 km/h (3 Bft) 97,87 %
04.06.2022 11:46 19,4 C 21,7 C 17,8 C 70 % 1019,6 hPa 0,0 l/m 2 min 0 min 618 W/m 19,3 km/h (3 Bft) 97,87 %
04.06.2022 11:48 19,6 C 22,2 C 18,3 C 71 % 1019,6 hPa 0,0 l/m 2 min 0 min 615 W/m 9,7 km/h (2 Bft) 97,87 %
04.06.2022 11:50 19,7 C 22,2 C 18,3 C 70 % 1019,7 hPa 0,0 l/m 2 min 0 min 682 W/m 12,9 km/h (3 Bft) 97,83 %
04.06.2022 11:52 19,8 C 22,2 C 18,3 C 70 % 1019,7 hPa 0,0 l/m 2 min 0 min 737 W/m 12,9 km/h (3 Bft) 97,87 %
04.06.2022 11:54 19,9 C 22,2 C 17,8 C 70 % 1019,7 hPa 0,0 l/m 2 min 0 min 721 W/m 12,9 km/h (3 Bft) 95,74 %
04.06.2022 11:56 20,1 C 22,8 C 17,8 C 69 % 1019,7 hPa 0,0 l/m 2 min 0 min 702 W/m 16,1 km/h (3 Bft) 97,87 %
04.06.2022 11:58 20,2 C 22,8 C 18,3 C 69 % 1019,7 hPa 0,0 l/m 2 min 0 min 727 W/m 9,7 km/h (2 Bft) 97,87 %
04.06.2022 12:00 20,3 C 22,8 C 18,3 C 69 % 1019,6 hPa 0,0 l/m 2 min 0 min 754 W/m 6,4 km/h (2 Bft) 97,87 %
04.06.2022 12:02 20,4 C 23,3 C 18,9 C 69 % 1019,6 hPa 0,0 l/m 2 min 0 min 789 W/m 12,9 km/h (3 Bft) 97,83 %
04.06.2022 12:04 20,5 C 23,3 C 18,9 C 68 % 1019,6 hPa 0,0 l/m 2 min 0 min 776 W/m 6,4 km/h (2 Bft) 97,87 %
04.06.2022 12:07 20,7 C 22,8 C 18,9 C 68 % 1019,6 hPa 0,0 l/m 3 min 0 min 749 W/m 16,1 km/h (3 Bft) 97,14 %
04.06.2022 12:08 20,7 C 22,8 C 18,9 C 67 % 1019,6 hPa 0,0 l/m 1 min 0 min 552 W/m 6,4 km/h (2 Bft) 100,00 %
04.06.2022 12:10 20,8 C 22,2 C 18,9 C 68 % 1019,6 hPa 0,0 l/m 2 min 0 min 554 W/m 16,1 km/h (3 Bft) 97,87 %
04.06.2022 12:12 20,8 C 22,2 C 18,3 C 68 % 1019,7 hPa 0,0 l/m 2 min 0 min 518 W/m 9,7 km/h (2 Bft) 95,65 %
04.06.2022 12:14 20,8 C 22,2 C 18,3 C 67 % 1019,6 hPa 0,0 l/m 2 min 0 min 525 W/m 9,7 km/h (2 Bft) 97,87 %
04.06.2022 12:16 20,8 C 22,2 C 18,9 C 68 % 1019,6 hPa 0,0 l/m 2 min 0 min 589 W/m 6,4 km/h (2 Bft) 95,74 %
04.06.2022 12:18 20,8 C 22,2 C 18,9 C 67 % 1019,5 hPa 0,0 l/m 2 min 0 min 568 W/m 9,7 km/h (2 Bft) 100,00 %
04.06.2022 12:20 20,7 C 22,2 C 18,9 C 68 % 1019,6 hPa 0,0 l/m 2 min 0 min 525 W/m 12,9 km/h (3 Bft) 97,87 %
04.06.2022 12:22 20,7 C 22,8 C 19,4 C 68 % 1019,5 hPa 0,0 l/m 2 min 0 min 621 W/m 9,7 km/h (2 Bft) 100,00 %
04.06.2022 12:24 20,8 C 22,8 C 20,0 C 68 % 1019,6 hPa 0,0 l/m 2 min 0 min 707 W/m 19,3 km/h (3 Bft) 97,83 %
04.06.2022 12:26 20,8 C 22,8 C 20,0 C 68 % 1019,6 hPa 0,0 l/m 2 min 0 min 657 W/m 12,9 km/h (3 Bft) 97,87 %
04.06.2022 12:28 20,9 C 22,8 C 20,6 C 68 % 1019,5 hPa 0,0 l/m 2 min 0 min 506 W/m 9,7 km/h (2 Bft) 100,00 %
04.06.2022 12:30 20,9 C 22,8 C 21,1 C 68 % 1019,6 hPa 0,0 l/m 2 min 0 min 590 W/m 6,4 km/h (2 Bft) 100,00 %
04.06.2022 12:32 21,1 C 23,3 C 21,7 C 68 % 1019,7 hPa 0,0 l/m 2 min 0 min 765 W/m 6,4 km/h (2 Bft) 97,87 %
04.06.2022 12:34 21,3 C 23,9 C 22,2 C 69 % 1019,7 hPa 0,0 l/m 2 min 0 min 821 W/m 12,9 km/h (3 Bft) 100,00 %
04.06.2022 12:36 21,6 C 24,4 C 22,8 C 67 % 1019,7 hPa 0,0 l/m 2 min 0 min 781 W/m 9,7 km/h (2 Bft) 97,83 %
04.06.2022 12:38 21,6 C 23,9 C 21,7 C 67 % 1019,6 hPa 0,0 l/m 2 min 0 min 621 W/m 19,3 km/h (3 Bft) 100,00 %
04.06.2022 12:40 21,7 C 23,3 C 21,7 C 66 % 1019,7 hPa 0,0 l/m 2 min 0 min 650 W/m 12,9 km/h (3 Bft) 100,00 %
04.06.2022 12:42 21,7 C 23,3 C 21,7 C 66 % 1019,7 hPa 0,0 l/m 2 min 0 min 594 W/m 9,7 km/h (2 Bft) 95,74 %
04.06.2022 12:44 21,8 C 23,3 C 21,7 C 67 % 1019,7 hPa 0,0 l/m 2 min 0 min 613 W/m 12,9 km/h (3 Bft) 97,87 %
04.06.2022 12:46 21,8 C 23,3 C 22,8 C 66 % 1019,7 hPa 0,0 l/m 2 min 0 min 640 W/m 9,7 km/h (2 Bft) 97,87 %
04.06.2022 12:48 21,9 C 23,9 C 23,3 C 67 % 1019,7 hPa 0,0 l/m 2 min 0 min 859 W/m 16,1 km/h (3 Bft) 97,83 %
04.06.2022 12:50 22,0 C 23,9 C 23,3 C 66 % 1019,7 hPa 0,0 l/m 2 min 0 min 918 W/m 16,1 km/h (3 Bft) 97,87 %
04.06.2022 12:52 22,1 C 23,9 C 23,9 C 66 % 1019,7 hPa 0,0 l/m 2 min 0 min 910 W/m 9,7 km/h (2 Bft) 97,87 %
04.06.2022 12:54 22,2 C 23,9 C 23,9 C 65 % 1019,6 hPa 0,0 l/m 2 min 0 min 877 W/m 9,7 km/h (2 Bft) 97,87 %
04.06.2022 12:56 22,3 C 24,4 C 24,4 C 66 % 1019,7 hPa 0,0 l/m 2 min 0 min 901 W/m 9,7 km/h (2 Bft) 97,87 %
04.06.2022 12:58 22,3 C 24,4 C 24,4 C 65 % 1019,7 hPa 0,0 l/m 2 min 0 min 906 W/m 9,7 km/h (2 Bft) 97,87 %
04.06.2022 13:00 22,4 C 24,4 C 24,4 C 65 % 1019,7 hPa 0,0 l/m 2 min 0 min 908 W/m 12,9 km/h (3 Bft) 97,83 %
04.06.2022 13:02 22,5 C 24,4 C 24,4 C 65 % 1019,6 hPa 0,0 l/m 2 min 0 min 917 W/m 12,9 km/h (3 Bft) 97,87 %
04.06.2022 13:04 22,6 C 24,4 C 24,4 C 65 % 1019,7 hPa 0,0 l/m 2 min 0 min 916 W/m 16,1 km/h (3 Bft) 97,62 %
04.06.2022 13:06 22,7 C 24,4 C 25,0 C 65 % 1019,6 hPa 0,0 l/m 2 min 0 min 917 W/m 9,7 km/h (2 Bft) 95,74 %
04.06.2022 13:08 22,8 C 25,0 C 25,0 C 65 % 1019,6 hPa 0,0 l/m 2 min 0 min 919 W/m 9,7 km/h (2 Bft) 97,87 %
04.06.2022 13:10 22,9 C 25,6 C 25,6 C 65 % 1019,6 hPa 0,0 l/m 2 min 0 min 929 W/m 9,7 km/h (2 Bft) 97,83 %
04.06.2022 13:12 23,0 C 25,0 C 25,6 C 63 % 1019,6 hPa 0,0 l/m 2 min 0 min 931 W/m 12,9 km/h (3 Bft) 97,87 %
04.06.2022 13:14 23,1 C 25,0 C 25,6 C 64 % 1019,6 hPa 0,0 l/m 2 min 0 min 815 W/m 16,1 km/h (3 Bft) 97,87 %
04.06.2022 13:16 23,1 C 25,0 C 25,0 C 64 % 1019,6 hPa 0,0 l/m 2 min 0 min 887 W/m 19,3 km/h (3 Bft) 100,00 %
04.06.2022 13:18 23,2 C 25,0 C 25,0 C 64 % 1019,6 hPa 0,0 l/m 2 min 0 min 907 W/m 12,9 km/h (3 Bft) 100,00 %
04.06.2022 13:20 23,2 C 25,6 C 25,0 C 64 % 1019,6 hPa 0,0 l/m 2 min 0 min 974 W/m 12,9 km/h (3 Bft) 100,00 %
04.06.2022 13:22 23,3 C 26,1 C 25,0 C 63 % 1019,6 hPa 0,0 l/m 2 min 0 min 881 W/m 12,9 km/h (3 Bft) 100,00 %
04.06.2022 13:24 23,3 C 26,1 C 25,0 C 64 % 1019,5 hPa 0,0 l/m 2 min 0 min 827 W/m 9,7 km/h (2 Bft) 100,00 %
04.06.2022 13:26 23,4 C 26,1 C 25,6 C 64 % 1019,6 hPa 0,0 l/m 2 min 0 min 980 W/m 12,9 km/h (3 Bft) 100,00 %
04.06.2022 13:28 23,6 C 26,1 C 25,6 C 63 % 1019,6 hPa 0,0 l/m 2 min 0 min 916 W/m 16,1 km/h (3 Bft) 100,00 %
04.06.2022 13:30 23,6 C 25,6 C 25,0 C 62 % 1019,6 hPa 0,0 l/m 2 min 0 min 721 W/m 9,7 km/h (2 Bft) 95,74 %
04.06.2022 13:32 23,6 C 25,6 C 24,4 C 63 % 1019,6 hPa 0,0 l/m 2 min 0 min 720 W/m 6,4 km/h (2 Bft) 97,87 %
04.06.2022 13:34 23,6 C 25,0 C 24,4 C 62 % 1019,6 hPa 0,0 l/m 2 min 0 min 692 W/m 19,3 km/h (3 Bft) 100,00 %
04.06.2022 13:36 23,5 C 25,0 C 23,9 C 63 % 1019,5 hPa 0,0 l/m 2 min 0 min 650 W/m 12,9 km/h (3 Bft) 97,87 %
04.06.2022 13:38 23,5 C 25,0 C 22,8 C 64 % 1019,6 hPa 0,0 l/m 2 min 0 min 618 W/m 12,9 km/h (3 Bft) 100,00 %
04.06.2022 13:40 23,4 C 25,0 C 22,8 C 64 % 1019,6 hPa 0,0 l/m 2 min 0 min 562 W/m 9,7 km/h (2 Bft) 97,87 %
04.06.2022 13:42 23,4 C 25,0 C 21,7 C 63 % 1019,6 hPa 0,0 l/m 0 min 0 min 427 W/m 9,7 km/h (2 Bft) 100,00 %
04.06.2022 13:44 23,3 C 24,4 C 21,1 C 63 % 1019,6 hPa 0,0 l/m 2 min 0 min 457 W/m 12,9 km/h (3 Bft) 100,00 %
04.06.2022 13:46 23,2 C 25,0 C 21,1 C 64 % 1019,6 hPa 0,0 l/m 2 min 0 min 594 W/m 9,7 km/h (2 Bft) 100,00 %
04.06.2022 13:48 23,2 C 25,0 C 21,7 C 64 % 1019,6 hPa 0,0 l/m 2 min 0 min 593 W/m 12,9 km/h (3 Bft) 97,87 %
04.06.2022 13:50 23,2 C 26,1 C 22,8 C 64 % 1019,6 hPa 0,0 l/m 2 min 0 min 710 W/m 9,7 km/h (2 Bft) 97,87 %
04.06.2022 13:52 23,4 C 26,1 C 22,8 C 64 % 1019,6 hPa 0,0 l/m 2 min 0 min 985 W/m 16,1 km/h (3 Bft) 97,87 %
04.06.2022 13:54 23,6 C 26,7 C 22,8 C 64 % 1019,7 hPa 0,0 l/m 2 min 0 min 884 W/m 12,9 km/h (3 Bft) 97,87 %
04.06.2022 13:56 23,7 C 27,2 C 22,2 C 63 % 1019,6 hPa 0,0 l/m 2 min 0 min 901 W/m 12,9 km/h (3 Bft) 95,74 %
04.06.2022 13:58 23,8 C 27,2 C 22,2 C 63 % 1019,7 hPa 0,0 l/m 2 min 0 min 863 W/m 12,9 km/h (3 Bft) 95,65 %
04.06.2022 14:00 23,9 C 27,2 C 21,7 C 62 % 1019,7 hPa 0,0 l/m 2 min 0 min 846 W/m 12,9 km/h (3 Bft) 95,74 %
04.06.2022 14:02 24,1 C 27,2 C 21,7 C 61 % 1019,7 hPa 0,0 l/m 2 min 0 min 715 W/m 9,7 km/h (2 Bft) 97,87 %
04.06.2022 14:04 24,1 C 27,2 C 21,7 C 61 % 1019,6 hPa 0,0 l/m 2 min 0 min 682 W/m 12,9 km/h (3 Bft) 95,74 %
04.06.2022 14:06 24,1 C 26,7 C 21,1 C 62 % 1019,7 hPa 0,0 l/m 2 min 0 min 703 W/m 9,7 km/h (2 Bft) 97,87 %
04.06.2022 14:08 24,2 C 26,7 C 21,1 C 61 % 1019,7 hPa 0,0 l/m 2 min 0 min 657 W/m 9,7 km/h (2 Bft) 95,74 %
04.06.2022 14:10 24,2 C 26,7 C 21,1 C 61 % 1019,7 hPa 0,0 l/m 2 min 0 min 656 W/m 12,9 km/h (3 Bft) 95,65 %
04.06.2022 14:12 24,2 C 26,7 C 21,1 C 61 % 1019,7 hPa 0,0 l/m 2 min 0 min 656 W/m 12,9 km/h (3 Bft) 95,74 %
04.06.2022 14:14 24,2 C 26,7 C 20,6 C 60 % 1019,7 hPa 0,0 l/m 2 min 0 min 656 W/m 12,9 km/h (3 Bft) 95,74 %
04.06.2022 14:16 24,2 C 27,2 C 21,1 C 61 % 1019,7 hPa 0,0 l/m 2 min 0 min 656 W/m 6,4 km/h (2 Bft) 93,62 %
04.06.2022 14:18 24,3 C 27,2 C 21,1 C 62 % 1019,6 hPa 0,0 l/m 2 min 0 min 742 W/m 19,3 km/h (3 Bft) 95,74 %
04.06.2022 14:20 24,4 C 27,8 C 21,1 C 61 % 1019,6 hPa 0,0 l/m 2 min 0 min 803 W/m 12,9 km/h (3 Bft) 95,74 %
04.06.2022 14:22 24,6 C 28,3 C 21,1 C 62 % 1019,6 hPa 0,0 l/m 2 min 0 min 963 W/m 6,4 km/h (2 Bft) 93,48 %
04.06.2022 14:24 24,7 C 28,3 C 21,1 C 61 % 1019,6 hPa 0,0 l/m 2 min 0 min 1136 W/m 12,9 km/h (3 Bft) 95,74 %
04.06.2022 14:26 24,8 C 29,4 C 21,1 C 61 % 1019,6 hPa 0,0 l/m 2 min 0 min 1118 W/m 12,9 km/h (3 Bft) 95,74 %
04.06.2022 14:28 25,0 C 28,9 C 21,7 C 60 % 1019,6 hPa 0,0 l/m 2 min 0 min 1114 W/m 16,1 km/h (3 Bft) 91,49 %
04.06.2022 14:30 25,1 C 28,3 C 21,1 C 58 % 1019,6 hPa 0,0 l/m 2 min 0 min 1068 W/m 12,9 km/h (3 Bft) 95,74 %
04.06.2022 14:32 25,1 C 28,3 C 21,1 C 59 % 1019,5 hPa 0,0 l/m 2 min 0 min 1035 W/m 9,7 km/h (2 Bft) 93,62 %
04.06.2022 14:34 25,2 C 28,3 C 20,6 C 58 % 1019,5 hPa 0,0 l/m 2 min 0 min 889 W/m 12,9 km/h (3 Bft) 95,74 %
04.06.2022 14:36 25,2 C 28,3 C 20,6 C 58 % 1019,4 hPa 0,0 l/m 2 min 0 min 915 W/m 9,7 km/h (2 Bft) 91,30 %
04.06.2022 14:38 25,2 C 28,3 C 20,6 C 59 % 1019,4 hPa 0,0 l/m 2 min 0 min 914 W/m 16,1 km/h (3 Bft) 93,62 %
04.06.2022 14:40 25,2 C 28,3 C 20,6 C 58 % 1019,5 hPa 0,0 l/m 2 min 0 min 898 W/m 16,1 km/h (3 Bft) 97,87 %
04.06.2022 14:42 25,2 C 28,9 C 20,6 C 59 % 1019,4 hPa 0,0 l/m 2 min 0 min 900 W/m 12,9 km/h (3 Bft) 93,62 %
04.06.2022 14:44 25,2 C 28,3 C 20,6 C 59 % 1019,3 hPa 0,0 l/m 2 min 0 min 892 W/m 12,9 km/h (3 Bft) 95,74 %
04.06.2022 14:46 25,2 C 28,9 C 20,6 C 58 % 1019,3 hPa 0,0 l/m 2 min 0 min 891 W/m 12,9 km/h (3 Bft) 93,48 %
04.06.2022 14:48 25,2 C 28,3 C 20,6 C 58 % 1019,2 hPa 0,0 l/m 2 min 0 min 888 W/m 12,9 km/h (3 Bft) 93,62 %
04.06.2022 14:50 25,2 C 28,3 C 20,6 C 57 % 1019,2 hPa 0,0 l/m 2 min 0 min 886 W/m 16,1 km/h (3 Bft) 93,62 %
04.06.2022 14:52 25,2 C 28,3 C 20,6 C 58 % 1019,1 hPa 0,0 l/m 2 min 0 min 884 W/m 16,1 km/h (3 Bft) 93,62 %
04.06.2022 14:54 25,2 C 28,9 C 20,6 C 58 % 1019,2 hPa 0,0 l/m 2 min 0 min 880 W/m 9,7 km/h (2 Bft) 95,74 %
04.06.2022 14:56 25,2 C 28,9 C 20,6 C 58 % 1019,1 hPa 0,0 l/m 2 min 0 min 879 W/m 9,7 km/h (2 Bft) 95,74 %
04.06.2022 14:58 25,2 C 28,3 C 20,6 C 57 % 1019,2 hPa 0,0 l/m 2 min 0 min 875 W/m 12,9 km/h (3 Bft) 97,83 %
04.06.2022 15:00 25,3 C 28,3 C 20,6 C 57 % 1019,2 hPa 0,0 l/m 2 min 0 min 872 W/m 16,1 km/h (3 Bft) 97,87 %
04.06.2022 15:02 25,3 C 27,8 C 20,6 C 57 % 1019,3 hPa 0,0 l/m 2 min 0 min 873 W/m 16,1 km/h (3 Bft) 95,74 %
04.06.2022 15:04 25,2 C 27,2 C 20,6 C 58 % 1019,3 hPa 0,0 l/m 2 min 0 min 872 W/m 16,1 km/h (3 Bft) 95,74 %
04.06.2022 15:06 25,2 C 27,8 C 20,6 C 57 % 1019,2 hPa 0,0 l/m 2 min 0 min 867 W/m 12,9 km/h (3 Bft) 95,74 %
04.06.2022 15:08 25,3 C 28,3 C 20,6 C 58 % 1019,2 hPa 0,0 l/m 2 min 0 min 860 W/m 16,1 km/h (3 Bft) 97,87 %
04.06.2022 15:10 25,4 C 28,9 C 20,6 C 59 % 1019,2 hPa 0,0 l/m 2 min 0 min 862 W/m 9,7 km/h (2 Bft) 95,65 %
04.06.2022 15:12 25,5 C 28,3 C 20,6 C 58 % 1019,2 hPa 0,0 l/m 2 min 0 min 858 W/m 12,9 km/h (3 Bft) 100,00 %
04.06.2022 15:14 25,5 C 28,3 C 20,6 C 59 % 1019,2 hPa 0,0 l/m 2 min 0 min 855 W/m 12,9 km/h (3 Bft) 97,87 %
04.06.2022 15:16 25,5 C 27,8 C 20,6 C 58 % 1019,2 hPa 0,0 l/m 2 min 0 min 853 W/m 12,9 km/h (3 Bft) 100,00 %
04.06.2022 15:18 25,5 C 27,8 C 20,6 C 58 % 1019,2 hPa 0,0 l/m 2 min 0 min 849 W/m 12,9 km/h (3 Bft) 100,00 %
04.06.2022 15:20 25,5 C 27,8 C 20,6 C 58 % 1019,2 hPa 0,0 l/m 2 min 0 min 850 W/m 12,9 km/h (3 Bft) 97,87 %
04.06.2022 15:22 25,6 C 28,3 C 21,1 C 58 % 1019,1 hPa 0,0 l/m 2 min 0 min 848 W/m 16,1 km/h (3 Bft) 100,00 %
04.06.2022 15:24 25,6 C 28,3 C 21,1 C 58 % 1019,2 hPa 0,0 l/m 2 min 0 min 843 W/m 9,7 km/h (2 Bft) 97,87 %
04.06.2022 15:26 25,6 C 28,3 C 21,1 C 58 % 1019,2 hPa 0,0 l/m 2 min 0 min 841 W/m 9,7 km/h (2 Bft) 97,87 %
04.06.2022 15:28 25,6 C 28,3 C 21,1 C 57 % 1019,2 hPa 0,0 l/m 2 min 0 min 841 W/m 19,3 km/h (3 Bft) 100,00 %
04.06.2022 15:30 25,5 C 27,8 C 20,6 C 57 % 1019,1 hPa 0,0 l/m 2 min 0 min 837 W/m 12,9 km/h (3 Bft) 100,00 %
04.06.2022 15:32 25,5 C 28,3 C 20,6 C 58 % 1019,1 hPa 0,0 l/m 2 min 0 min 833 W/m 16,1 km/h (3 Bft) 100,00 %
04.06.2022 15:34 25,5 C 28,3 C 21,1 C 59 % 1019,2 hPa 0,0 l/m 2 min 0 min 830 W/m 9,7 km/h (2 Bft) 100,00 %
04.06.2022 15:36 25,6 C 28,9 C 21,1 C 59 % 1019,2 hPa 0,0 l/m 2 min 0 min 825 W/m 12,9 km/h (3 Bft) 100,00 %
04.06.2022 15:38 25,6 C 28,9 C 21,1 C 59 % 1019,1 hPa 0,0 l/m 2 min 0 min 825 W/m 9,7 km/h (2 Bft) 97,87 %
04.06.2022 15:40 25,7 C 28,9 C 21,1 C 59 % 1019,2 hPa 0,0 l/m 2 min 0 min 824 W/m 9,7 km/h (2 Bft) 100,00 %
04.06.2022 15:42 25,8 C 28,9 C 21,7 C 58 % 1019,2 hPa 0,0 l/m 2 min 0 min 817 W/m 12,9 km/h (3 Bft) 100,00 %
04.06.2022 15:44 25,8 C 28,9 C 21,7 C 58 % 1019,2 hPa 0,0 l/m 2 min 0 min 813 W/m 16,1 km/h (3 Bft) 100,00 %
04.06.2022 15:46 25,9 C 28,9 C 21,1 C 58 % 1019,2 hPa 0,0 l/m 2 min 0 min 808 W/m 16,1 km/h (3 Bft) 100,00 %
04.06.2022 15:48 25,9 C 29,4 C 21,1 C 58 % 1019,2 hPa 0,0 l/m 2 min 0 min 804 W/m 9,7 km/h (2 Bft) 100,00 %
04.06.2022 15:50 25,9 C 29,4 C 21,7 C 58 % 1019,2 hPa 0,0 l/m 2 min 0 min 802 W/m 12,9 km/h (3 Bft) 100,00 %
04.06.2022 15:52 25,9 C 30,0 C 21,7 C 58 % 1019,2 hPa 0,0 l/m 2 min 0 min 798 W/m 6,4 km/h (2 Bft) 100,00 %
04.06.2022 15:54 26,0 C 30,0 C 21,7 C 58 % 1019,1 hPa 0,0 l/m 2 min 0 min 800 W/m 6,4 km/h (2 Bft) 100,00 %
04.06.2022 15:56 26,0 C 29,4 C 21,7 C 57 % 1019,1 hPa 0,0 l/m 2 min 0 min 796 W/m 12,9 km/h (3 Bft) 97,87 %
04.06.2022 15:58 26,1 C 30,0 C 21,7 C 57 % 1019,1 hPa 0,0 l/m 2 min 0 min 788 W/m 9,7 km/h (2 Bft) 100,00 %
04.06.2022 16:00 26,1 C 30,0 C 21,7 C 57 % 1019,0 hPa 0,0 l/m 2 min 0 min 780 W/m 12,9 km/h (3 Bft) 100,00 %
04.06.2022 16:02 26,2 C 30,6 C 22,2 C 58 % 1019,1 hPa 0,0 l/m 2 min 0 min 779 W/m 16,1 km/h (3 Bft) 97,87 %
04.06.2022 16:04 26,2 C 30,0 C 21,7 C 56 % 1019,0 hPa 0,0 l/m 2 min 0 min 783 W/m 12,9 km/h (3 Bft) 100,00 %
04.06.2022 16:06 26,2 C 30,0 C 21,7 C 56 % 1019,0 hPa 0,0 l/m 2 min 0 min 780 W/m 12,9 km/h (3 Bft) 100,00 %
04.06.2022 16:08 26,2 C 30,0 C 21,7 C 56 % 1019,0 hPa 0,0 l/m 2 min 0 min 773 W/m 16,1 km/h (3 Bft) 100,00 %
04.06.2022 16:10 26,2 C 29,4 C 21,7 C 56 % 1019,0 hPa 0,0 l/m 2 min 0 min 769 W/m 19,3 km/h (3 Bft) 100,00 %
04.06.2022 16:12 26,1 C 30,0 C 21,7 C 57 % 1018,9 hPa 0,0 l/m 2 min 0 min 767 W/m 9,7 km/h (2 Bft) 100,00 %
04.06.2022 16:14 26,2 C 30,6 C 21,7 C 57 % 1018,9 hPa 0,0 l/m 2 min 0 min 762 W/m 9,7 km/h (2 Bft) 100,00 %
04.06.2022 16:16 26,2 C 30,6 C 21,7 C 57 % 1019,0 hPa 0,0 l/m 2 min 0 min 758 W/m 19,3 km/h (3 Bft) 97,87 %
04.06.2022 16:18 26,2 C 31,1 C 22,2 C 58 % 1018,9 hPa 0,0 l/m 2 min 0 min 756 W/m 12,9 km/h (3 Bft) 100,00 %
04.06.2022 16:20 26,3 C 31,7 C 22,2 C 57 % 1018,8 hPa 0,0 l/m 2 min 0 min 749 W/m 16,1 km/h (3 Bft) 97,87 %
04.06.2022 16:22 26,3 C 32,2 C 22,8 C 57 % 1018,8 hPa 0,0 l/m 2 min 0 min 742 W/m 12,9 km/h (3 Bft) 100,00 %
04.06.2022 16:24 26,4 C 31,7 C 22,8 C 58 % 1018,9 hPa 0,0 l/m 2 min 0 min 735 W/m 12,9 km/h (3 Bft) 100,00 %
04.06.2022 16:26 26,5 C 31,7 C 22,8 C 57 % 1018,8 hPa 0,0 l/m 2 min 0 min 733 W/m 9,7 km/h (2 Bft) 100,00 %
04.06.2022 16:28 26,7 C 32,2 C 22,8 C 58 % 1018,8 hPa 0,0 l/m 2 min 0 min 737 W/m 9,7 km/h (2 Bft) 97,87 %
04.06.2022 16:30 26,8 C 32,2 C 22,8 C 57 % 1018,8 hPa 0,0 l/m 2 min 0 min 732 W/m 12,9 km/h (3 Bft) 97,87 %
04.06.2022 16:32 26,8 C 32,8 C 22,8 C 56 % 1018,8 hPa 0,0 l/m 2 min 0 min 723 W/m 12,9 km/h (3 Bft) 100,00 %
04.06.2022 16:34 26,9 C 32,8 C 23,3 C 56 % 1018,8 hPa 0,0 l/m 2 min 0 min 720 W/m 6,4 km/h (2 Bft) 97,83 %
04.06.2022 16:36 26,9 C 32,8 C 23,3 C 57 % 1018,8 hPa 0,0 l/m 2 min 0 min 713 W/m 19,3 km/h (3 Bft) 95,74 %
04.06.2022 16:38 26,9 C 33,3 C 23,3 C 56 % 1018,8 hPa 0,0 l/m 2 min 0 min 711 W/m 19,3 km/h (3 Bft) 97,87 %
04.06.2022 16:40 26,9 C 33,3 C 23,3 C 56 % 1018,8 hPa 0,0 l/m 2 min 0 min 708 W/m 9,7 km/h (2 Bft) 95,74 %
04.06.2022 16:42 27,0 C 33,9 C 23,3 C 56 % 1018,8 hPa 0,0 l/m 2 min 0 min 704 W/m 6,4 km/h (2 Bft) 97,87 %
04.06.2022 16:44 27,1 C 33,3 C 23,3 C 56 % 1018,7 hPa 0,0 l/m 2 min 0 min 698 W/m 12,9 km/h (3 Bft) 95,65 %
04.06.2022 16:46 27,0 C 33,3 C 23,3 C 57 % 1018,8 hPa 0,0 l/m 2 min 0 min 696 W/m 12,9 km/h (3 Bft) 91,49 %
04.06.2022 16:48 27,1 C 32,8 C 23,3 C 57 % 1018,8 hPa 0,0 l/m 2 min 0 min 690 W/m 12,9 km/h (3 Bft) 95,74 %
04.06.2022 16:50 27,1 C 32,8 C 23,9 C 56 % 1018,8 hPa 0,0 l/m 2 min 0 min 684 W/m 16,1 km/h (3 Bft) 95,74 %
04.06.2022 16:52 27,1 C 33,3 C 23,3 C 55 % 1018,8 hPa 0,0 l/m 2 min 0 min 680 W/m 6,4 km/h (2 Bft) 93,62 %
04.06.2022 16:54 27,1 C 32,8 C 23,3 C 56 % 1018,8 hPa 0,0 l/m 2 min 0 min 678 W/m 12,9 km/h (3 Bft) 93,62 %
04.06.2022 16:56 27,1 C 33,3 C 23,3 C 56 % 1018,7 hPa 0,0 l/m 2 min 0 min 673 W/m 9,7 km/h (2 Bft) 95,65 %
04.06.2022 16:58 27,1 C 33,3 C 23,3 C 56 % 1018,7 hPa 0,0 l/m 2 min 0 min 668 W/m 19,3 km/h (3 Bft) 95,74 %
04.06.2022 17:00 27,1 C 32,8 C 23,3 C 55 % 1018,6 hPa 0,0 l/m 2 min 0 min 661 W/m 12,9 km/h (3 Bft) 93,62 %
04.06.2022 17:02 27,1 C 32,8 C 23,3 C 56 % 1018,6 hPa 0,0 l/m 2 min 0 min 660 W/m 12,9 km/h (3 Bft) 89,36 %
04.06.2022 17:04 27,1 C 33,3 C 23,9 C 56 % 1018,6 hPa 0,0 l/m 2 min 0 min 656 W/m 9,7 km/h (2 Bft) 95,74 %
04.06.2022 17:06 27,2 C 33,9 C 23,9 C 56 % 1018,6 hPa 0,0 l/m 2 min 0 min 650 W/m 6,4 km/h (2 Bft) 93,62 %
04.06.2022 17:08 27,2 C 33,3 C 23,9 C 56 % 1018,5 hPa 0,0 l/m 2 min 0 min 647 W/m 12,9 km/h (3 Bft) 91,49 %
04.06.2022 17:10 27,3 C 33,3 C 23,9 C 57 % 1018,6 hPa 0,0 l/m 2 min 0 min 641 W/m 9,7 km/h (2 Bft) 93,48 %
04.06.2022 17:12 27,4 C 33,3 C 23,9 C 56 % 1018,6 hPa 0,0 l/m 2 min 0 min 635 W/m 12,9 km/h (3 Bft) 95,74 %
04.06.2022 17:14 27,5 C 33,3 C 23,9 C 55 % 1018,6 hPa 0,0 l/m 2 min 0 min 629 W/m 9,7 km/h (2 Bft) 93,62 %
04.06.2022 17:16 27,6 C 32,8 C 23,9 C 54 % 1018,5 hPa 0,0 l/m 2 min 0 min 625 W/m 16,1 km/h (3 Bft) 97,87 %
04.06.2022 17:18 27,5 C 32,2 C 23,3 C 54 % 1018,5 hPa 0,0 l/m 2 min 0 min 623 W/m 12,9 km/h (3 Bft) 97,87 %
04.06.2022 17:20 27,4 C 32,2 C 23,3 C 54 % 1018,5 hPa 0,0 l/m 2 min 0 min 617 W/m 9,7 km/h (2 Bft) 93,62 %
04.06.2022 17:22 27,3 C 31,7 C 23,3 C 54 % 1018,5 hPa 0,0 l/m 2 min 0 min 611 W/m 9,7 km/h (2 Bft) 95,65 %
04.06.2022 17:24 27,3 C 32,2 C 23,3 C 55 % 1018,5 hPa 0,0 l/m 2 min 0 min 606 W/m 9,7 km/h (2 Bft) 97,87 %
04.06.2022 17:26 27,3 C 32,2 C 23,3 C 55 % 1018,5 hPa 0,0 l/m 2 min 0 min 601 W/m 12,9 km/h (3 Bft) 97,87 %
04.06.2022 17:28 27,4 C 32,8 C 23,9 C 55 % 1018,5 hPa 0,0 l/m 2 min 0 min 597 W/m 9,7 km/h (2 Bft) 95,74 %
04.06.2022 17:30 27,6 C 33,3 C 23,9 C 55 % 1018,5 hPa 0,0 l/m 2 min 0 min 588 W/m 12,9 km/h (3 Bft) 95,74 %
04.06.2022 17:32 27,6 C 32,8 C 23,9 C 54 % 1018,4 hPa 0,0 l/m 2 min 0 min 588 W/m 12,9 km/h (3 Bft) 97,87 %
04.06.2022 17:34 27,6 C 32,2 C 23,9 C 54 % 1018,4 hPa 0,0 l/m 2 min 0 min 585 W/m 12,9 km/h (3 Bft) 97,83 %
04.06.2022 17:36 27,6 C 32,2 C 23,9 C 55 % 1018,3 hPa 0,0 l/m 2 min 0 min 579 W/m 6,4 km/h (2 Bft) 97,87 %
04.06.2022 17:38 27,6 C 32,8 C 23,9 C 55 % 1018,3 hPa 0,0 l/m 2 min 0 min 567 W/m 12,9 km/h (3 Bft) 97,87 %
04.06.2022 17:40 27,6 C 32,8 C 23,9 C 54 % 1018,3 hPa 0,0 l/m 2 min 0 min 562 W/m 9,7 km/h (2 Bft) 97,87 %
04.06.2022 17:42 27,6 C 32,2 C 23,9 C 55 % 1018,3 hPa 0,0 l/m 2 min 0 min 556 W/m 12,9 km/h (3 Bft) 95,74 %
04.06.2022 17:44 27,5 C 31,7 C 23,9 C 54 % 1018,3 hPa 0,0 l/m 2 min 0 min 547 W/m 16,1 km/h (3 Bft) 97,83 %
04.06.2022 17:46 27,4 C 32,2 C 23,9 C 55 % 1018,3 hPa 0,0 l/m 2 min 0 min 547 W/m 9,7 km/h (2 Bft) 97,87 %
04.06.2022 17:48 27,3 C 32,8 C 23,9 C 55 % 1018,3 hPa 0,0 l/m 2 min 0 min 541 W/m 12,9 km/h (3 Bft) 97,87 %
04.06.2022 17:50 27,3 C 32,8 C 23,9 C 55 % 1018,2 hPa 0,0 l/m 2 min 0 min 535 W/m 9,7 km/h (2 Bft) 97,87 %
04.06.2022 17:52 27,3 C 32,8 C 23,9 C 56 % 1018,2 hPa 0,0 l/m 2 min 0 min 531 W/m 9,7 km/h (2 Bft) 95,74 %
04.06.2022 17:54 27,5 C 33,3 C 23,9 C 56 % 1018,1 hPa 0,0 l/m 2 min 0 min 528 W/m 6,4 km/h (2 Bft) 95,74 %
04.06.2022 17:56 27,6 C 33,9 C 24,4 C 56 % 1018,1 hPa 0,0 l/m 2 min 0 min 521 W/m 9,7 km/h (2 Bft) 97,83 %
04.06.2022 17:58 27,6 C 33,9 C 24,4 C 55 % 1018,1 hPa 0,0 l/m 2 min 0 min 513 W/m 9,7 km/h (2 Bft) 100,00 %
04.06.2022 18:00 27,7 C 33,3 C 24,4 C 55 % 1018,1 hPa 0,0 l/m 2 min 0 min 507 W/m 9,7 km/h (2 Bft) 100,00 %
04.06.2022 18:02 27,6 C 32,8 C 23,9 C 54 % 1018,0 hPa 0,0 l/m 2 min 0 min 502 W/m 9,7 km/h (2 Bft) 97,87 %
04.06.2022 18:04 27,6 C 32,8 C 23,9 C 55 % 1018,0 hPa 0,0 l/m 2 min 0 min 496 W/m 12,9 km/h (3 Bft) 100,00 %
04.06.2022 18:07 27,6 C 33,3 C 23,9 C 56 % 1018,0 hPa 0,0 l/m 3 min 0 min 493 W/m 9,7 km/h (2 Bft) 100,00 %
04.06.2022 18:08 27,6 C 33,3 C 23,9 C 55 % 1018,0 hPa 0,0 l/m 1 min 0 min 488 W/m 9,7 km/h (2 Bft) 100,00 %
04.06.2022 18:10 27,6 C 33,3 C 23,9 C 55 % 1018,0 hPa 0,0 l/m 2 min 0 min 483 W/m 9,7 km/h (2 Bft) 100,00 %
04.06.2022 18:12 27,6 C 32,8 C 23,9 C 55 % 1018,0 hPa 0,0 l/m 2 min 0 min 476 W/m 12,9 km/h (3 Bft) 100,00 %
04.06.2022 18:14 27,6 C 32,8 C 23,9 C 55 % 1018,1 hPa 0,0 l/m 2 min 0 min 470 W/m 9,7 km/h (2 Bft) 100,00 %
04.06.2022 18:16 27,6 C 32,8 C 23,9 C 55 % 1018,0 hPa 0,0 l/m 2 min 0 min 461 W/m 19,3 km/h (3 Bft) 100,00 %
04.06.2022 18:18 27,6 C 33,3 C 23,9 C 55 % 1018,0 hPa 0,0 l/m 2 min 0 min 454 W/m 9,7 km/h (2 Bft) 100,00 %
04.06.2022 18:20 27,5 C 33,3 C 23,9 C 54 % 1018,0 hPa 0,0 l/m 2 min 0 min 446 W/m 12,9 km/h (3 Bft) 100,00 %
04.06.2022 18:22 27,4 C 32,8 C 23,9 C 55 % 1018,0 hPa 0,0 l/m 2 min 0 min 440 W/m 16,1 km/h (3 Bft) 100,00 %
04.06.2022 18:24 27,4 C 33,3 C 23,9 C 55 % 1018,0 hPa 0,0 l/m 2 min 0 min 438 W/m 12,9 km/h (3 Bft) 97,83 %
04.06.2022 18:26 27,4 C 32,8 C 23,9 C 56 % 1018,0 hPa 0,0 l/m 2 min 0 min 434 W/m 12,9 km/h (3 Bft) 100,00 %
04.06.2022 18:28 27,4 C 33,3 C 23,9 C 55 % 1018,1 hPa 0,0 l/m 2 min 0 min 428 W/m 9,7 km/h (2 Bft) 100,00 %
04.06.2022 18:30 27,3 C 33,3 C 23,9 C 55 % 1018,0 hPa 0,0 l/m 2 min 0 min 421 W/m 9,7 km/h (2 Bft) 97,87 %
04.06.2022 18:32 27,3 C 32,8 C 23,9 C 55 % 1018,0 hPa 0,0 l/m 2 min 0 min 414 W/m 16,1 km/h (3 Bft) 97,87 %
04.06.2022 18:34 27,2 C 32,2 C 23,9 C 54 % 1018,0 hPa 0,0 l/m 2 min 0 min 409 W/m 12,9 km/h (3 Bft) 97,87 %
04.06.2022 18:36 27,1 C 32,8 C 23,9 C 55 % 1018,1 hPa 0,0 l/m 2 min 0 min 405 W/m 6,4 km/h (2 Bft) 98,28 %
04.06.2022 18:38 27,0 C 32,8 C 23,9 C 55 % 1018,2 hPa 0,0 l/m 2 min 0 min 398 W/m 12,9 km/h (3 Bft) 100,00 %
04.06.2022 18:40 27,0 C 32,2 C 23,9 C 55 % 1018,3 hPa 0,0 l/m 2 min 0 min 393 W/m 12,9 km/h (3 Bft) 95,74 %
04.06.2022 18:42 26,9 C 32,8 C 23,3 C 55 % 1018,2 hPa 0,0 l/m 2 min 0 min 388 W/m 16,1 km/h (3 Bft) 95,74 %
04.06.2022 18:44 26,8 C 32,8 C 23,3 C 55 % 1018,2 hPa 0,0 l/m 2 min 0 min 383 W/m 9,7 km/h (2 Bft) 97,87 %
04.06.2022 18:46 26,8 C 32,2 C 23,3 C 55 % 1018,2 hPa 0,0 l/m 2 min 0 min 378 W/m 12,9 km/h (3 Bft) 93,62 %
04.06.2022 18:48 26,8 C 32,2 C 23,9 C 55 % 1018,2 hPa 0,0 l/m 2 min 0 min 370 W/m 16,1 km/h (3 Bft) 97,83 %
04.06.2022 18:50 26,8 C 32,2 C 23,3 C 56 % 1018,2 hPa 0,0 l/m 2 min 0 min 364 W/m 12,9 km/h (3 Bft) 95,74 %
04.06.2022 18:52 26,8 C 31,7 C 23,3 C 55 % 1018,3 hPa 0,0 l/m 2 min 0 min 360 W/m 9,7 km/h (2 Bft) 97,87 %
04.06.2022 18:54 26,7 C 32,2 C 23,3 C 55 % 1018,2 hPa 0,0 l/m 2 min 0 min 354 W/m 12,9 km/h (3 Bft) 95,74 %
04.06.2022 18:56 26,7 C 32,2 C 23,3 C 56 % 1018,2 hPa 0,0 l/m 2 min 0 min 350 W/m 6,4 km/h (2 Bft) 95,74 %
04.06.2022 18:58 26,7 C 31,7 C 23,3 C 55 % 1018,1 hPa 0,0 l/m 2 min 0 min 345 W/m 16,1 km/h (3 Bft) 97,87 %
04.06.2022 19:00 26,7 C 31,1 C 23,3 C 55 % 1018,0 hPa 0,0 l/m 2 min 0 min 339 W/m 12,9 km/h (3 Bft) 95,65 %
04.06.2022 19:02 26,7 C 31,1 C 22,8 C 55 % 1018,0 hPa 0,0 l/m 2 min 0 min 333 W/m 6,4 km/h (2 Bft) 95,74 %
04.06.2022 19:04 26,7 C 31,1 C 22,8 C 56 % 1018,1 hPa 0,0 l/m 2 min 0 min 321 W/m 9,7 km/h (2 Bft) 97,87 %
04.06.2022 19:06 26,6 C 30,0 C 22,8 C 55 % 1018,0 hPa 0,0 l/m 2 min 0 min 292 W/m 12,9 km/h (3 Bft) 94,92 %
04.06.2022 19:08 26,6 C 28,9 C 22,2 C 54 % 1018,0 hPa 0,0 l/m 2 min 0 min 307 W/m 12,9 km/h (3 Bft) 100,00 %
04.06.2022 19:10 26,5 C 27,8 C 22,2 C 56 % 1018,0 hPa 0,0 l/m 2 min 0 min 249 W/m 12,9 km/h (3 Bft) 95,74 %
04.06.2022 19:12 26,4 C 27,2 C 21,7 C 55 % 1018,0 hPa 0,0 l/m 2 min 0 min 282 W/m 9,7 km/h (2 Bft) 95,65 %
04.06.2022 19:14 26,3 C 27,2 C 21,7 C 55 % 1017,9 hPa 0,0 l/m 2 min 0 min 280 W/m 12,9 km/h (3 Bft) 97,87 %
04.06.2022 19:16 26,2 C 27,2 C 21,7 C 56 % 1017,9 hPa 0,0 l/m 2 min 0 min 247 W/m 16,1 km/h (3 Bft) 97,96 %
04.06.2022 19:18 26,1 C 26,7 C 21,7 C 56 % 1018,0 hPa 0,0 l/m 2 min 0 min 241 W/m 9,7 km/h (2 Bft) 97,87 %
04.06.2022 19:20 26,0 C 26,7 C 21,1 C 56 % 1018,0 hPa 0,0 l/m 2 min 0 min 202 W/m 12,9 km/h (3 Bft) 97,83 %
04.06.2022 19:22 25,8 C 26,1 C 21,1 C 56 % 1018,0 hPa 0,0 l/m 2 min 0 min 194 W/m 9,7 km/h (2 Bft) 97,87 %
04.06.2022 19:24 25,8 C 26,1 C 21,1 C 57 % 1018,0 hPa 0,0 l/m 2 min 0 min 236 W/m 16,1 km/h (3 Bft) 97,87 %
04.06.2022 19:26 25,7 C 26,1 C 21,1 C 57 % 1018,0 hPa 0,0 l/m 2 min 0 min 279 W/m 12,9 km/h (3 Bft) 97,87 %
04.06.2022 19:28 25,7 C 25,6 C 21,1 C 56 % 1018,0 hPa 0,0 l/m 2 min 0 min 270 W/m 16,1 km/h (3 Bft) 95,74 %
04.06.2022 19:30 25,6 C 25,6 C 21,1 C 56 % 1018,1 hPa 0,0 l/m 2 min 0 min 268 W/m 12,9 km/h (3 Bft) 97,87 %
04.06.2022 19:32 25,6 C 25,6 C 21,1 C 57 % 1018,0 hPa 0,0 l/m 2 min 0 min 259 W/m 9,7 km/h (2 Bft) 97,83 %
04.06.2022 19:34 25,5 C 25,6 C 21,1 C 57 % 1018,0 hPa 0,0 l/m 2 min 0 min 254 W/m 9,7 km/h (2 Bft) 97,87 %
04.06.2022 19:36 25,4 C 25,0 C 21,1 C 57 % 1018,0 hPa 0,0 l/m 2 min 0 min 246 W/m 9,7 km/h (2 Bft) 97,87 %
04.06.2022 19:38 25,4 C 25,0 C 20,6 C 57 % 1018,0 hPa 0,0 l/m 2 min 0 min 239 W/m 9,7 km/h (2 Bft) 97,87 %
04.06.2022 19:40 25,3 C 25,0 C 20,6 C 57 % 1018,0 hPa 0,0 l/m 2 min 0 min 233 W/m 9,7 km/h (2 Bft) 97,87 %
04.06.2022 19:42 25,2 C 25,0 C 20,6 C 57 % 1018,0 hPa 0,0 l/m 2 min 0 min 225 W/m 9,7 km/h (2 Bft) 97,87 %
04.06.2022 19:44 25,2 C 25,0 C 20,6 C 57 % 1018,0 hPa 0,0 l/m 2 min 0 min 215 W/m 9,7 km/h (2 Bft) 97,83 %
04.06.2022 19:46 25,2 C 25,0 C 20,6 C 57 % 1018,0 hPa 0,0 l/m 2 min 0 min 199 W/m 12,9 km/h (3 Bft) 95,74 %
04.06.2022 19:48 25,2 C 24,4 C 20,6 C 57 % 1018,1 hPa 0,0 l/m 2 min 0 min 180 W/m 12,9 km/h (3 Bft) 97,87 %
04.06.2022 19:50 25,1 C 24,4 C 20,6 C 57 % 1018,0 hPa 0,0 l/m 2 min 0 min 155 W/m 12,9 km/h (3 Bft) 97,87 %
04.06.2022 19:52 25,1 C 24,4 C 20,6 C 57 % 1018,0 hPa 0,0 l/m 2 min 0 min 133 W/m 12,9 km/h (3 Bft) 97,87 %
04.06.2022 19:54 24,9 C 24,4 C 20,6 C 57 % 1018,0 hPa 0,0 l/m 0 min 0 min 87 W/m 6,4 km/h (2 Bft) 97,87 %
04.06.2022 19:56 24,9 C 23,9 C 20,0 C 58 % 1018,0 hPa 0,0 l/m 0 min 0 min 73 W/m 9,7 km/h (2 Bft) 100,00 %
04.06.2022 19:58 24,8 C 23,9 C 20,0 C 58 % 1017,9 hPa 0,0 l/m 0 min 0 min 70 W/m 16,1 km/h (3 Bft) 100,00 %
04.06.2022 20:00 24,8 C 23,9 C 20,0 C 58 % 1018,0 hPa 0,0 l/m 0 min 0 min 70 W/m 9,7 km/h (2 Bft) 100,00 %
04.06.2022 20:02 24,8 C 23,9 C 20,0 C 58 % 1017,9 hPa 0,0 l/m 0 min 0 min 70 W/m 9,7 km/h (2 Bft) 100,00 %
04.06.2022 20:04 24,7 C 23,9 C 20,0 C 58 % 1018,0 hPa 0,0 l/m 0 min 0 min 69 W/m 9,7 km/h (2 Bft) 100,00 %
04.06.2022 20:06 24,6 C 23,9 C 20,0 C 58 % 1018,0 hPa 0,0 l/m 0 min 0 min 67 W/m 6,4 km/h (2 Bft) 100,00 %
04.06.2022 20:08 24,5 C 23,9 C 20,0 C 58 % 1017,9 hPa 0,0 l/m 0 min 0 min 63 W/m 9,7 km/h (2 Bft) 100,00 %
04.06.2022 20:10 24,4 C 23,9 C 20,0 C 58 % 1018,0 hPa 0,0 l/m 0 min 0 min 60 W/m 9,7 km/h (2 Bft) 100,00 %
04.06.2022 20:12 24,3 C 23,9 C 20,0 C 58 % 1018,0 hPa 0,0 l/m 0 min 0 min 58 W/m 9,7 km/h (2 Bft) 97,87 %
04.06.2022 20:14 24,3 C 23,9 C 20,0 C 59 % 1017,9 hPa 0,0 l/m 0 min 0 min 56 W/m 6,4 km/h (2 Bft) 100,00 %
04.06.2022 20:16 24,2 C 23,3 C 19,4 C 60 % 1018,0 hPa 0,0 l/m 0 min 0 min 56 W/m 9,7 km/h (2 Bft) 97,87 %
04.06.2022 20:18 24,2 C 23,3 C 19,4 C 60 % 1018,0 hPa 0,0 l/m 0 min 0 min 59 W/m 12,9 km/h (3 Bft) 97,87 %
04.06.2022 20:20 24,1 C 23,3 C 19,4 C 60 % 1017,9 hPa 0,0 l/m 0 min 0 min 61 W/m 6,4 km/h (2 Bft) 100,00 %
04.06.2022 20:22 24,0 C 23,3 C 19,4 C 60 % 1018,0 hPa 0,0 l/m 0 min 0 min 63 W/m 6,4 km/h (2 Bft) 100,00 %
04.06.2022 20:24 23,9 C 23,3 C 19,4 C 60 % 1018,0 hPa 0,0 l/m 0 min 0 min 63 W/m 6,4 km/h (2 Bft) 100,00 %
04.06.2022 20:26 23,9 C 23,3 C 19,4 C 61 % 1018,0 hPa 0,0 l/m 0 min 0 min 63 W/m 6,4 km/h (2 Bft) 97,87 %
04.06.2022 20:28 23,8 C 23,3 C 19,4 C 61 % 1018,0 hPa 0,0 l/m 0 min 0 min 63 W/m 12,9 km/h (3 Bft) 95,74 %
04.06.2022 20:30 23,8 C 23,3 C 19,4 C 61 % 1018,1 hPa 0,0 l/m 0 min 0 min 63 W/m 9,7 km/h (2 Bft) 100,00 %
04.06.2022 20:32 23,7 C 23,3 C 19,4 C 61 % 1018,1 hPa 0,0 l/m 0 min 0 min 63 W/m 6,4 km/h (2 Bft) 97,96 %
04.06.2022 20:34 23,7 C 23,3 C 19,4 C 61 % 1018,0 hPa 0,0 l/m 0 min 0 min 62 W/m 9,7 km/h (2 Bft) 97,83 %
04.06.2022 20:36 23,7 C 22,8 C 19,4 C 61 % 1018,0 hPa 0,0 l/m 0 min 0 min 60 W/m 12,9 km/h (3 Bft) 97,87 %
04.06.2022 20:38 23,6 C 22,8 C 18,9 C 61 % 1018,0 hPa 0,0 l/m 0 min 0 min 57 W/m 9,7 km/h (2 Bft) 95,74 %
04.06.2022 20:40 23,6 C 22,8 C 19,4 C 61 % 1018,0 hPa 0,0 l/m 0 min 0 min 55 W/m 16,1 km/h (3 Bft) 95,74 %
04.06.2022 20:42 23,6 C 22,8 C 18,9 C 61 % 1018,0 hPa 0,0 l/m 0 min 0 min 54 W/m 6,4 km/h (2 Bft) 95,74 %
04.06.2022 20:44 23,5 C 22,8 C 18,9 C 61 % 1018,0 hPa 0,0 l/m 0 min 0 min 51 W/m 16,1 km/h (3 Bft) 95,74 %
04.06.2022 20:46 23,4 C 22,8 C 18,9 C 61 % 1018,0 hPa 0,0 l/m 0 min 0 min 48 W/m 9,7 km/h (2 Bft) 95,65 %
04.06.2022 20:48 23,4 C 22,8 C 18,9 C 61 % 1018,0 hPa 0,0 l/m 0 min 0 min 47 W/m 9,7 km/h (2 Bft) 95,74 %
04.06.2022 20:50 23,4 C 22,8 C 18,9 C 62 % 1018,0 hPa 0,0 l/m 0 min 0 min 46 W/m 9,7 km/h (2 Bft) 95,74 %
04.06.2022 20:52 23,3 C 22,8 C 18,9 C 62 % 1018,0 hPa 0,0 l/m 0 min 0 min 41 W/m 6,4 km/h (2 Bft) 95,74 %
04.06.2022 20:54 23,3 C 22,8 C 18,9 C 62 % 1018,0 hPa 0,0 l/m 0 min 0 min 40 W/m 9,7 km/h (2 Bft) 95,74 %
04.06.2022 20:56 23,2 C 22,8 C 18,9 C 62 % 1018,0 hPa 0,0 l/m 0 min 0 min 37 W/m 9,7 km/h (2 Bft) 95,74 %
04.06.2022 20:58 23,2 C 22,8 C 18,9 C 62 % 1018,0 hPa 0,0 l/m 0 min 0 min 34 W/m 9,7 km/h (2 Bft) 95,65 %
04.06.2022 21:00 23,2 C 22,8 C 18,9 C 62 % 1018,1 hPa 0,0 l/m 0 min 0 min 33 W/m 9,7 km/h (2 Bft) 93,62 %
04.06.2022 21:02 23,1 C 22,8 C 18,9 C 62 % 1018,1 hPa 0,0 l/m 0 min 0 min 30 W/m 16,1 km/h (3 Bft) 95,74 %
04.06.2022 21:04 23,1 C 22,8 C 18,9 C 62 % 1018,1 hPa 0,0 l/m 0 min 0 min 27 W/m 12,9 km/h (3 Bft) 95,74 %
04.06.2022 21:06 23,1 C 22,2 C 18,9 C 62 % 1018,1 hPa 0,0 l/m 0 min 0 min 26 W/m 9,7 km/h (2 Bft) 97,87 %
04.06.2022 21:08 23,0 C 22,2 C 18,3 C 63 % 1018,1 hPa 0,0 l/m 0 min 0 min 25 W/m 6,4 km/h (2 Bft) 95,74 %
04.06.2022 21:10 22,9 C 22,2 C 18,3 C 63 % 1018,1 hPa 0,0 l/m 0 min 0 min 24 W/m 9,7 km/h (2 Bft) 97,83 %
04.06.2022 21:12 22,9 C 22,2 C 18,3 C 63 % 1018,1 hPa 0,0 l/m 0 min 0 min 21 W/m 6,4 km/h (2 Bft) 97,87 %
04.06.2022 21:14 22,8 C 22,2 C 18,3 C 63 % 1018,1 hPa 0,0 l/m 0 min 0 min 19 W/m 6,4 km/h (2 Bft) 97,87 %
04.06.2022 21:16 22,8 C 22,2 C 18,3 C 63 % 1018,1 hPa 0,0 l/m 0 min 0 min 18 W/m 6,4 km/h (2 Bft) 97,87 %
04.06.2022 21:18 22,7 C 22,2 C 18,3 C 63 % 1018,1 hPa 0,0 l/m 0 min 0 min 16 W/m 6,4 km/h (2 Bft) 97,87 %
04.06.2022 21:20 22,7 C 22,2 C 17,8 C 63 % 1018,1 hPa 0,0 l/m 0 min 0 min 15 W/m 9,7 km/h (2 Bft) 97,87 %
04.06.2022 21:22 22,6 C 21,7 C 17,8 C 63 % 1018,1 hPa 0,0 l/m 0 min 0 min 12 W/m 6,4 km/h (2 Bft) 97,87 %
04.06.2022 21:24 22,6 C 21,7 C 17,8 C 63 % 1018,2 hPa 0,0 l/m 0 min 0 min 11 W/m 9,7 km/h (2 Bft) 97,83 %
04.06.2022 21:26 22,5 C 21,7 C 17,8 C 64 % 1018,2 hPa 0,0 l/m 0 min 0 min 9 W/m 6,4 km/h (2 Bft) 100,00 %
04.06.2022 21:28 22,4 C 21,7 C 17,8 C 64 % 1018,2 hPa 0,0 l/m 0 min 0 min 8 W/m 9,7 km/h (2 Bft) 97,87 %
04.06.2022 21:30 22,3 C 21,7 C 17,8 C 64 % 1018,2 hPa 0,0 l/m 0 min 0 min 5 W/m 6,4 km/h (2 Bft) 97,87 %
04.06.2022 21:32 22,3 C 21,7 C 17,8 C 64 % 1018,2 hPa 0,0 l/m 0 min 0 min 5 W/m 12,9 km/h (3 Bft) 100,00 %
04.06.2022 21:34 22,3 C 21,7 C 17,8 C 63 % 1018,2 hPa 0,0 l/m 0 min 0 min 5 W/m 9,7 km/h (2 Bft) 97,83 %
04.06.2022 21:36 22,2 C 21,7 C 17,8 C 64 % 1018,3 hPa 0,0 l/m 0 min 0 min 0 W/m 6,4 km/h (2 Bft) 97,87 %
04.06.2022 21:38 22,2 C 21,7 C 17,8 C 64 % 1018,2 hPa 0,0 l/m 0 min 0 min 0 W/m 9,7 km/h (2 Bft) 97,87 %
04.06.2022 21:40 22,1 C 21,1 C 17,8 C 64 % 1018,3 hPa 0,0 l/m 0 min 0 min 0 W/m 9,7 km/h (2 Bft) 97,87 %
04.06.2022 21:42 22,1 C 21,1 C 17,2 C 64 % 1018,3 hPa 0,0 l/m 0 min 0 min 0 W/m 6,4 km/h (2 Bft) 95,74 %
04.06.2022 21:44 22,1 C 21,1 C 17,2 C 64 % 1018,3 hPa 0,0 l/m 0 min 0 min 0 W/m 6,4 km/h (2 Bft) 97,87 %
04.06.2022 21:46 22,0 C 21,1 C 17,2 C 64 % 1018,3 hPa 0,0 l/m 0 min 0 min 0 W/m 6,4 km/h (2 Bft) 95,65 %
04.06.2022 21:48 21,9 C 21,1 C 17,2 C 65 % 1018,3 hPa 0,0 l/m 0 min 0 min 0 W/m 12,9 km/h (3 Bft) 97,87 %
04.06.2022 21:50 21,8 C 21,1 C 17,2 C 65 % 1018,3 hPa 0,0 l/m 0 min 0 min 0 W/m 6,4 km/h (2 Bft) 97,87 %
04.06.2022 21:52 21,8 C 21,1 C 17,2 C 65 % 1018,4 hPa 0,0 l/m 0 min 0 min 0 W/m 6,4 km/h (2 Bft) 97,87 %
04.06.2022 21:54 21,8 C 21,1 C 17,2 C 65 % 1018,4 hPa 0,0 l/m 0 min 0 min 0 W/m 6,4 km/h (2 Bft) 97,87 %
04.06.2022 21:56 21,8 C 21,1 C 17,2 C 64 % 1018,4 hPa 0,0 l/m 0 min 0 min 0 W/m 9,7 km/h (2 Bft) 97,87 %
04.06.2022 21:58 21,7 C 21,1 C 17,2 C 65 % 1018,4 hPa 0,0 l/m 0 min 0 min 0 W/m 6,4 km/h (2 Bft) 95,65 %
04.06.2022 22:00 21,7 C 20,6 C 17,2 C 64 % 1018,4 hPa 0,0 l/m 0 min 0 min 0 W/m 12,9 km/h (3 Bft) 95,74 %
04.06.2022 22:02 21,6 C 20,6 C 17,2 C 65 % 1018,4 hPa 0,0 l/m 0 min 0 min 0 W/m 6,4 km/h (2 Bft) 97,87 %
04.06.2022 22:04 21,6 C 20,6 C 17,2 C 65 % 1018,4 hPa 0,0 l/m 0 min 0 min 0 W/m 9,7 km/h (2 Bft) 95,74 %
04.06.2022 22:06 21,6 C 20,6 C 16,7 C 65 % 1018,4 hPa 0,0 l/m 0 min 0 min 0 W/m 3,2 km/h (1 Bft) 97,87 %
04.06.2022 22:08 21,4 C 20,6 C 16,7 C 65 % 1018,4 hPa 0,0 l/m 0 min 0 min 0 W/m 6,4 km/h (2 Bft) 97,83 %
04.06.2022 22:10 21,4 C 20,6 C 16,7 C 65 % 1018,4 hPa 0,0 l/m 0 min 0 min 0 W/m 6,4 km/h (2 Bft) 97,87 %
04.06.2022 22:12 21,4 C 20,6 C 16,7 C 65 % 1018,4 hPa 0,0 l/m 0 min 0 min 0 W/m 3,2 km/h (1 Bft) 97,87 %
04.06.2022 22:14 21,3 C 20,6 C 16,7 C 66 % 1018,4 hPa 0,0 l/m 0 min 0 min 0 W/m 6,4 km/h (2 Bft) 97,87 %
04.06.2022 22:16 21,2 C 20,0 C 16,7 C 66 % 1018,4 hPa 0,0 l/m 0 min 0 min 0 W/m 12,9 km/h (3 Bft) 97,87 %
04.06.2022 22:18 21,2 C 20,0 C 16,7 C 66 % 1018,4 hPa 0,0 l/m 0 min 0 min 0 W/m 6,4 km/h (2 Bft) 97,87 %
04.06.2022 22:20 21,1 C 20,0 C 16,7 C 66 % 1018,4 hPa 0,0 l/m 0 min 0 min 0 W/m 6,4 km/h (2 Bft) 93,48 %
04.06.2022 22:22 21,1 C 20,0 C 16,7 C 66 % 1018,4 hPa 0,0 l/m 0 min 0 min 0 W/m 6,4 km/h (2 Bft) 95,74 %
04.06.2022 22:24 21,1 C 20,0 C 16,7 C 66 % 1018,4 hPa 0,0 l/m 0 min 0 min 0 W/m 9,7 km/h (2 Bft) 95,74 %
04.06.2022 22:26 21,0 C 20,0 C 16,7 C 66 % 1018,4 hPa 0,0 l/m 0 min 0 min 0 W/m 6,4 km/h (2 Bft) 97,87 %
04.06.2022 22:28 21,0 C 20,0 C 16,7 C 66 % 1018,4 hPa 0,0 l/m 0 min 0 min 0 W/m 6,4 km/h (2 Bft) 97,87 %
04.06.2022 22:30 20,9 C 20,0 C 16,7 C 66 % 1018,4 hPa 0,0 l/m 0 min 0 min 0 W/m 6,4 km/h (2 Bft) 97,87 %
04.06.2022 22:32 20,9 C 20,0 C 16,7 C 66 % 1018,3 hPa 0,0 l/m 0 min 0 min 0 W/m 6,4 km/h (2 Bft) 97,87 %
04.06.2022 22:34 20,8 C 20,0 C 16,7 C 67 % 1018,4 hPa 0,0 l/m 0 min 0 min 0 W/m 6,4 km/h (2 Bft) 95,65 %
04.06.2022 22:36 20,8 C 20,0 C 16,1 C 67 % 1018,3 hPa 0,0 l/m 0 min 0 min 0 W/m 6,4 km/h (2 Bft) 97,87 %
04.06.2022 22:38 20,8 C 20,0 C 16,1 C 67 % 1018,4 hPa 0,0 l/m 0 min 0 min 0 W/m 3,2 km/h (1 Bft) 97,87 %
04.06.2022 22:40 20,8 C 20,0 C 16,1 C 67 % 1018,3 hPa 0,0 l/m 0 min 0 min 0 W/m 3,2 km/h (1 Bft) 97,87 %
04.06.2022 22:42 20,7 C 20,0 C 16,1 C 67 % 1018,4 hPa 0,0 l/m 0 min 0 min 0 W/m 6,4 km/h (2 Bft) 93,62 %
04.06.2022 22:44 20,7 C 20,0 C 16,1 C 67 % 1018,4 hPa 0,0 l/m 0 min 0 min 0 W/m 3,2 km/h (1 Bft) 97,83 %
04.06.2022 22:46 20,7 C 20,0 C 16,1 C 67 % 1018,3 hPa 0,0 l/m 0 min 0 min 0 W/m 6,4 km/h (2 Bft) 97,87 %
04.06.2022 22:48 20,6 C 20,0 C 16,1 C 67 % 1018,3 hPa 0,0 l/m 0 min 0 min 0 W/m 6,4 km/h (2 Bft) 97,87 %
04.06.2022 22:50 20,6 C 20,0 C 16,1 C 67 % 1018,3 hPa 0,0 l/m 0 min 0 min 0 W/m 9,7 km/h (2 Bft) 97,87 %
04.06.2022 22:52 20,6 C 20,0 C 16,1 C 67 % 1018,2 hPa 0,0 l/m 0 min 0 min 0 W/m 6,4 km/h (2 Bft) 97,87 %
04.06.2022 22:54 20,6 C 20,0 C 16,1 C 67 % 1018,1 hPa 0,0 l/m 0 min 0 min 0 W/m 9,7 km/h (2 Bft) 97,87 %
04.06.2022 22:56 20,6 C 20,0 C 16,1 C 67 % 1018,2 hPa 0,0 l/m 0 min 0 min 0 W/m 0,0 km/h (0 Bft) 97,83 %
04.06.2022 22:58 20,5 C 20,0 C 16,1 C 67 % 1018,2 hPa 0,0 l/m 0 min 0 min 0 W/m 0,0 km/h (0 Bft) 97,87 %
04.06.2022 23:00 20,5 C 19,4 C 16,1 C 67 % 1018,1 hPa 0,0 l/m 0 min 0 min 0 W/m 0,0 km/h (0 Bft) 100,00 %
04.06.2022 23:02 20,5 C 19,4 C 16,1 C 67 % 1018,1 hPa 0,0 l/m 0 min 0 min 0 W/m 9,7 km/h (2 Bft) 100,00 %
04.06.2022 23:04 20,4 C 19,4 C 16,1 C 67 % 1018,1 hPa 0,0 l/m 0 min 0 min 0 W/m 9,7 km/h (2 Bft) 100,00 %
04.06.2022 23:06 20,4 C 19,4 C 16,1 C 67 % 1018,1 hPa 0,0 l/m 0 min 0 min 0 W/m 9,7 km/h (2 Bft) 100,00 %
04.06.2022 23:08 20,4 C 19,4 C 16,1 C 67 % 1018,0 hPa 0,0 l/m 0 min 0 min 0 W/m 9,7 km/h (2 Bft) 100,00 %
04.06.2022 23:10 20,4 C 19,4 C 16,1 C 68 % 1018,0 hPa 0,0 l/m 0 min 0 min 0 W/m 6,4 km/h (2 Bft) 100,00 %
04.06.2022 23:12 20,4 C 19,4 C 16,1 C 68 % 1017,9 hPa 0,0 l/m 0 min 0 min 0 W/m 12,9 km/h (3 Bft) 100,00 %
04.06.2022 23:14 20,3 C 19,4 C 16,1 C 68 % 1017,9 hPa 0,0 l/m 0 min 0 min 0 W/m 9,7 km/h (2 Bft) 97,87 %
04.06.2022 23:16 20,3 C 19,4 C 16,1 C 68 % 1017,9 hPa 0,0 l/m 0 min 0 min 0 W/m 6,4 km/h (2 Bft) 97,87 %
04.06.2022 23:18 20,3 C 19,4 C 16,1 C 68 % 1017,9 hPa 0,0 l/m 0 min 0 min 0 W/m 6,4 km/h (2 Bft) 100,00 %
04.06.2022 23:20 20,2 C 19,4 C 16,1 C 68 % 1017,9 hPa 0,0 l/m 0 min 0 min 0 W/m 9,7 km/h (2 Bft) 100,00 %
04.06.2022 23:22 20,2 C 19,4 C 16,1 C 68 % 1017,9 hPa 0,0 l/m 0 min 0 min 0 W/m 9,7 km/h (2 Bft) 97,96 %
04.06.2022 23:24 20,2 C 19,4 C 16,1 C 68 % 1017,9 hPa 0,0 l/m 0 min 0 min 0 W/m 6,4 km/h (2 Bft) 97,87 %
04.06.2022 23:26 20,2 C 19,4 C 15,6 C 68 % 1017,9 hPa 0,0 l/m 0 min 0 min 0 W/m 6,4 km/h (2 Bft) 100,00 %
04.06.2022 23:28 20,2 C 19,4 C 15,6 C 68 % 1017,9 hPa 0,0 l/m 0 min 0 min 0 W/m 6,4 km/h (2 Bft) 97,83 %
04.06.2022 23:30 20,1 C 19,4 C 15,6 C 68 % 1017,9 hPa 0,0 l/m 0 min 0 min 0 W/m 9,7 km/h (2 Bft) 97,87 %
04.06.2022 23:32 20,1 C 19,4 C 15,6 C 68 % 1017,9 hPa 0,0 l/m 0 min 0 min 0 W/m 6,4 km/h (2 Bft) 97,87 %
04.06.2022 23:34 20,1 C 19,4 C 15,6 C 68 % 1017,9 hPa 0,0 l/m 0 min 0 min 0 W/m 12,9 km/h (3 Bft) 97,87 %
04.06.2022 23:36 20,1 C 19,4 C 15,6 C 68 % 1017,9 hPa 0,0 l/m 0 min 0 min 0 W/m 6,4 km/h (2 Bft) 97,87 %
04.06.2022 23:38 20,1 C 19,4 C 15,6 C 69 % 1017,9 hPa 0,0 l/m 0 min 0 min 0 W/m 6,4 km/h (2 Bft) 97,87 %
04.06.2022 23:40 20,0 C 19,4 C 15,6 C 69 % 1017,9 hPa 0,0 l/m 0 min 0 min 0 W/m 9,7 km/h (2 Bft) 97,87 %
04.06.2022 23:42 20,0 C 18,9 C 15,6 C 69 % 1017,9 hPa 0,0 l/m 0 min 0 min 0 W/m 12,9 km/h (3 Bft) 97,83 %
04.06.2022 23:44 20,0 C 18,9 C 15,6 C 69 % 1017,8 hPa 0,0 l/m 0 min 0 min 0 W/m 6,4 km/h (2 Bft) 97,87 %
04.06.2022 23:46 19,9 C 18,9 C 15,6 C 69 % 1017,9 hPa 0,0 l/m 0 min 0 min 0 W/m 6,4 km/h (2 Bft) 97,87 %
04.06.2022 23:48 19,9 C 18,9 C 15,6 C 69 % 1017,9 hPa 0,0 l/m 0 min 0 min 0 W/m 6,4 km/h (2 Bft) 97,87 %
04.06.2022 23:50 19,9 C 18,9 C 15,6 C 69 % 1017,9 hPa 0,0 l/m 0 min 0 min 0 W/m 6,4 km/h (2 Bft) 95,74 %
04.06.2022 23:52 19,9 C 18,9 C 15,6 C 69 % 1017,9 hPa 0,0 l/m 0 min 0 min 0 W/m 6,4 km/h (2 Bft) 97,83 %
04.06.2022 23:54 19,9 C 18,9 C 15,6 C 69 % 1017,9 hPa 0,0 l/m 0 min 0 min 0 W/m 9,7 km/h (2 Bft) 93,62 %
04.06.2022 23:56 19,9 C 18,9 C 15,6 C 70 % 1017,9 hPa 0,0 l/m 0 min 0 min 0 W/m 9,7 km/h (2 Bft) 97,87 %
04.06.2022 23:58 19,9 C 18,9 C 15,6 C 70 % 1017,9 hPa 0,0 l/m 0 min 0 min 0 W/m 9,7 km/h (2 Bft) 97,87 %
_ Min-Zeit 06:22 05:46 05:36 17:16 00:00 - - - - 22:56 10:22
Minimum _ 14,7 C 13,9 C 10,6 C 54 % 1017,3 hPa - - - - 0,0 km/h (0 Bft) 48,78 %
_ Max-Zeit 18:00 16:42 13:10 06:56 11:32 00:00 12:07 00:00 14:24 00:36 00:00
Maximum _ 27,7 C 33,9 C 25,6 C 81 % 1019,7 hPa 0,0 l/m 3 min 0 min 1136 W/m 22,5 km/h
O (4 Bft)
100,00 %
Durchschnitt _ 20,4 C 21,2 C 16,7 C 68 % 1018,5 hPa #0,0 l/m #8:52 h #0 min. 409 W/m 10,5 km/h (2 Bft) 97,50 %
© 2022 W. Hausmann